| time (UTC) | temp F | wind direction | speed knots | gust knots | rain 1hr in | rain 24hr in | rain mn in | humidity % | barometer mb |
| 20260502193146 | 59 | 34 | 1.7 | 5.2 | 0.00 | 0.00 | 0.00 | 44 | 1011.4 |
| 20260502193046 | 59 | 32 | 1.7 | 5.2 | 0.00 | 0.00 | 0.00 | 46 | 1011.4 |
| 20260502192947 | 59 | 32 | 1.7 | 5.2 | 0.00 | 0.00 | 0.00 | 46 | 1011.4 |
| 20260502192845 | 59 | 39 | 1.7 | 5.2 | 0.00 | 0.00 | 0.00 | 46 | 1011.3 |
| 20260502192741 | 59 | 63 | 2.6 | 7.0 | 0.00 | 0.00 | 0.00 | 46 | 1011.3 |
| 20260502192638 | 59 | 97 | 2.6 | 7.0 | 0.00 | 0.00 | 0.00 | 44 | 1011.4 |
| 20260502192538 | 59 | 97 | 2.6 | 7.0 | 0.00 | 0.00 | 0.00 | 44 | 1011.4 |
| 20260502192437 | 59 | 97 | 2.6 | 7.0 | 0.00 | 0.00 | 0.00 | 44 | 1011.4 |
| 20260502192339 | 59 | 94 | 2.6 | 7.0 | 0.00 | 0.00 | 0.00 | 44 | 1011.4 |
| 20260502192231 | 59 | 67 | 2.6 | 7.0 | 0.00 | 0.00 | 0.00 | 44 | 1011.5 |
| 20260502192127 | 59 | 36 | 2.6 | 7.0 | 0.00 | 0.00 | 0.00 | 45 | 1011.4 |
| 20260502192028 | 59 | 34 | 2.6 | 7.0 | 0.00 | 0.00 | 0.00 | 45 | 1011.5 |
| 20260502191928 | 59 | 11 | 2.6 | 7.0 | 0.00 | 0.00 | 0.00 | 46 | 1011.4 |
| 20260502191829 | 59 | 34 | 2.6 | 9.6 | 0.00 | 0.00 | 0.00 | 48 | 1011.4 |
| 20260502191723 | 59 | 17 | 2.6 | 9.6 | 0.00 | 0.00 | 0.00 | 46 | 1011.4 |
| 20260502191625 | 59 | 37 | 2.6 | 9.6 | 0.00 | 0.00 | 0.00 | 45 | 1011.5 |
| 20260502191524 | 59 | 279 | 2.6 | 9.6 | 0.00 | 0.00 | 0.00 | 45 | 1011.5 |
| 20260502191423 | 59 | 51 | 2.6 | 9.6 | 0.00 | 0.00 | 0.00 | 45 | 1011.4 |
| 20260502191322 | 59 | 49 | 2.6 | 9.6 | 0.00 | 0.00 | 0.00 | 47 | 1011.4 |
| 20260502191217 | 59 | 19 | 2.6 | 9.6 | 0.00 | 0.00 | 0.00 | 47 | 1011.4 |
| 20260502191117 | 59 | 19 | 2.6 | 9.6 | 0.00 | 0.00 | 0.00 | 49 | 1011.4 |
| 20260502191017 | 59 | 336 | 2.6 | 9.6 | 0.00 | 0.00 | 0.00 | 43 | 1011.4 |
| 20260502190916 | 59 | 292 | 2.6 | 9.6 | 0.00 | 0.00 | 0.00 | 44 | 1011.5 |
| 20260502190817 | 59 | 355 | 2.6 | 7.0 | 0.00 | 0.00 | 0.00 | 44 | 1011.4 |
| 20260502190706 | 59 | 21 | 2.6 | 6.1 | 0.00 | 0.00 | 0.00 | 45 | 1011.5 |
| 20260502190606 | 59 | 5 | 2.6 | 6.1 | 0.00 | 0.00 | 0.00 | 46 | 1011.5 |
| 20260502190505 | 59 | 5 | 2.6 | 6.1 | 0.00 | 0.00 | 0.00 | 46 | 1011.5 |
| 20260502190406 | 59 | 15 | 2.6 | 6.1 | 0.00 | 0.00 | 0.00 | 47 | 1011.4 |
| 20260502190307 | 59 | 151 | 2.6 | 6.1 | 0.00 | 0.00 | 0.00 | 46 | 1011.5 |
| 20260502190202 | 58 | 124 | 2.6 | 6.1 | 0.00 | 0.00 | 0.00 | 45 | 1011.6 |
| 20260502190059 | 58 | 121 | 2.6 | 7.0 | 0.00 | 0.00 | 0.00 | 47 | 1011.5 |
| 20260502190001 | 58 | 112 | 2.6 | 7.0 | 0.00 | 0.00 | 0.00 | 45 | 1011.6 |
| 20260502185859 | 58 | 110 | 2.6 | 7.0 | 0.00 | 0.00 | 0.00 | 48 | 1011.7 |
| 20260502185801 | 58 | 117 | 2.6 | 7.0 | 0.00 | 0.00 | 0.00 | 45 | 1011.7 |
| 20260502185658 | 58 | 121 | 2.6 | 7.0 | 0.00 | 0.00 | 0.00 | 45 | 1011.7 |
| 20260502185559 | 58 | 121 | 2.6 | 7.0 | 0.00 | 0.00 | 0.00 | 46 | 1011.7 |
| 20260502185456 | 58 | 121 | 2.6 | 7.0 | 0.00 | 0.00 | 0.00 | 47 | 1011.8 |
| 20260502185356 | 58 | 130 | 2.6 | 7.0 | 0.00 | 0.00 | 0.00 | 45 | 1011.8 |
| 20260502185255 | 58 | 131 | 2.6 | 7.0 | 0.00 | 0.00 | 0.00 | 45 | 1011.7 |
| 20260502185145 | 58 | 111 | 2.6 | 7.0 | 0.00 | 0.00 | 0.00 | 45 | 1011.7 |
| 20260502185046 | 58 | 114 | 1.7 | 6.1 | 0.00 | 0.00 | 0.00 | 47 | 1011.7 |
| 20260502184947 | 58 | 114 | 1.7 | 6.1 | 0.00 | 0.00 | 0.00 | 46 | 1011.8 |
| 20260502184846 | 58 | 115 | 1.7 | 5.2 | 0.00 | 0.00 | 0.00 | 46 | 1011.7 |
| 20260502184746 | 58 | 88 | 1.7 | 3.5 | 0.00 | 0.00 | 0.00 | 45 | 1011.7 |
| 20260502184641 | 58 | 82 | 1.7 | 3.5 | 0.00 | 0.00 | 0.00 | 46 | 1011.7 |
| 20260502184538 | 58 | 222 | 1.7 | 4.3 | 0.00 | 0.00 | 0.00 | 45 | 1011.7 |
| 20260502184437 | 58 | 221 | 1.7 | 4.3 | 0.00 | 0.00 | 0.00 | 45 | 1011.8 |
| 20260502184338 | 58 | 17 | 1.7 | 4.3 | 0.00 | 0.00 | 0.00 | 47 | 1012.0 |
| 20260502184239 | 57 | 310 | 1.7 | 5.2 | 0.00 | 0.00 | 0.00 | 45 | 1011.7 |
| 20260502184132 | 57 | 281 | 2.6 | 7.8 | 0.00 | 0.00 | 0.00 | 46 | 1011.8 |
| 20260502184032 | 57 | 19 | 2.6 | 7.8 | 0.00 | 0.00 | 0.00 | 47 | 1012.0 |
| 20260502183933 | 57 | 22 | 2.6 | 7.8 | 0.00 | 0.00 | 0.00 | 46 | 1012.0 |
| 20260502183832 | 57 | 288 | 2.6 | 7.8 | 0.00 | 0.00 | 0.00 | 45 | 1012.0 |
| 20260502183733 | 57 | 250 | 3.5 | 8.7 | 0.00 | 0.00 | 0.00 | 45 | 1011.8 |
| 20260502183622 | 57 | 249 | 3.5 | 8.7 | 0.00 | 0.00 | 0.00 | 45 | 1011.8 |
| 20260502183522 | 57 | 9 | 3.5 | 8.7 | 0.00 | 0.00 | 0.00 | 46 | 1011.8 |
| 20260502183421 | 57 | 10 | 3.5 | 8.7 | 0.00 | 0.00 | 0.00 | 46 | 1011.8 |
| 20260502183323 | 57 | 340 | 3.5 | 8.7 | 0.00 | 0.00 | 0.00 | 45 | 1012.0 |
| 20260502183223 | 57 | 348 | 3.5 | 8.7 | 0.00 | 0.00 | 0.00 | 47 | 1012.0 |
| 20260502183118 | 57 | 5 | 3.5 | 8.7 | 0.00 | 0.00 | 0.00 | 48 | 1012.0 |
| 20260502183017 | 57 | 5 | 3.5 | 8.7 | 0.00 | 0.00 | 0.00 | 48 | 1011.8 |
| 20260502182917 | 57 | 288 | 3.5 | 8.7 | 0.00 | 0.00 | 0.00 | 47 | 1011.8 |
| 20260502182817 | 57 | 329 | 3.5 | 8.7 | 0.00 | 0.00 | 0.00 | 47 | 1011.7 |
| 20260502182716 | 57 | 100 | 2.6 | 8.7 | 0.00 | 0.00 | 0.00 | 46 | 1011.7 |
| 20260502182611 | 57 | 30 | 2.6 | 8.7 | 0.00 | 0.00 | 0.00 | 46 | 1011.7 |
| 20260502182511 | 57 | 57 | 2.6 | 8.7 | 0.00 | 0.00 | 0.00 | 47 | 1011.7 |
| 20260502182410 | 57 | 46 | 2.6 | 8.7 | 0.00 | 0.00 | 0.00 | 48 | 1011.7 |
| 20260502182313 | 57 | 42 | 2.6 | 8.7 | 0.00 | 0.00 | 0.00 | 49 | 1011.7 |
| 20260502182211 | 57 | 109 | 2.6 | 8.7 | 0.00 | 0.00 | 0.00 | 50 | 1011.7 |
| 20260502182100 | 57 | 118 | 2.6 | 8.7 | 0.00 | 0.00 | 0.00 | 47 | 1011.7 |
| 20260502182000 | 56 | 74 | 2.6 | 8.7 | 0.00 | 0.00 | 0.00 | 47 | 1011.8 |
| 20260502181900 | 56 | 286 | 3.5 | 8.7 | 0.00 | 0.00 | 0.00 | 46 | 1011.8 |
| 20260502181800 | 56 | 300 | 3.5 | 8.7 | 0.00 | 0.00 | 0.00 | 46 | 1011.8 |
| 20260502181700 | 56 | 296 | 3.5 | 8.7 | 0.00 | 0.00 | 0.00 | 47 | 1012.0 |
| 20260502181555 | 56 | 351 | 3.5 | 8.7 | 0.00 | 0.00 | 0.00 | 50 | 1012.0 |
| 20260502181455 | 56 | 92 | 3.5 | 8.7 | 0.00 | 0.00 | 0.00 | 47 | 1012.0 |
| 20260502181355 | 56 | 32 | 3.5 | 8.7 | 0.00 | 0.00 | 0.00 | 50 | 1012.0 |
| 20260502181255 | 56 | 95 | 3.5 | 8.7 | 0.00 | 0.00 | 0.00 | 48 | 1011.8 |
| 20260502181155 | 56 | 84 | 3.5 | 8.7 | 0.00 | 0.00 | 0.00 | 47 | 1012.0 |
| 20260502181051 | 56 | 57 | 2.6 | 8.7 | 0.00 | 0.00 | 0.00 | 47 | 1012.0 |
| 20260502180947 | 56 | 92 | 2.6 | 8.7 | 0.00 | 0.00 | 0.00 | 48 | 1012.0 |
| 20260502180849 | 56 | 69 | 2.6 | 8.7 | 0.00 | 0.00 | 0.00 | 48 | 1012.0 |
| 20260502180749 | 56 | 16 | 2.6 | 7.8 | 0.00 | 0.00 | 0.00 | 48 | 1012.1 |
| 20260502180649 | 56 | 340 | 2.6 | 7.8 | 0.00 | 0.00 | 0.00 | 49 | 1012.1 |
| 20260502180538 | 56 | 51 | 1.7 | 7.8 | 0.00 | 0.00 | 0.00 | 48 | 1012.1 |
| 20260502180437 | 56 | 350 | 2.6 | 7.8 | 0.00 | 0.00 | 0.00 | 48 | 1012.1 |
| 20260502180339 | 56 | 82 | 2.6 | 7.8 | 0.00 | 0.00 | 0.00 | 51 | 1012.0 |
| 20260502180239 | 56 | 103 | 2.6 | 7.8 | 0.00 | 0.00 | 0.00 | 49 | 1012.0 |
| 20260502180138 | 56 | 178 | 2.6 | 7.8 | 0.00 | 0.00 | 0.00 | 48 | 1012.1 |
| 20260502170453 | 53 | 98 | 2.6 | 6.1 | 0.00 | 0.00 | 0.00 | 50 | 1012.8 |
| 20260502170351 | 53 | 98 | 2.6 | 6.1 | 0.00 | 0.00 | 0.00 | 50 | 1012.9 |
| 20260502170249 | 53 | 98 | 2.6 | 7.0 | 0.00 | 0.00 | 0.00 | 50 | 1012.9 |
| 20260502170150 | 53 | 92 | 2.6 | 7.0 | 0.00 | 0.00 | 0.00 | 51 | 1013.0 |
| 20260502164337 | 52 | 54 | 2.6 | 7.0 | 0.00 | 0.00 | 0.00 | 52 | 1013.3 |
| 20260502164236 | 52 | 32 | 2.6 | 7.0 | 0.00 | 0.00 | 0.00 | 51 | 1013.4 |
| 20260502164137 | 52 | 32 | 2.6 | 7.0 | 0.00 | 0.00 | 0.00 | 51 | 1013.5 |
| 20260502164035 | 52 | 29 | 2.6 | 7.0 | 0.00 | 0.00 | 0.00 | 51 | 1013.5 |
| 20260502163937 | 52 | 36 | 2.6 | 7.0 | 0.00 | 0.00 | 0.00 | 51 | 1013.5 |
| 20260502163831 | 52 | 87 | 2.6 | 7.0 | 0.00 | 0.00 | 0.00 | 51 | 1013.5 |
| 20260502163730 | 52 | 95 | 3.5 | 7.0 | 0.00 | 0.00 | 0.00 | 51 | 1013.5 |
| 20260502163631 | 52 | 92 | 3.5 | 7.8 | 0.00 | 0.00 | 0.00 | 54 | 1013.4 |
| 20260502163530 | 52 | 72 | 3.5 | 7.8 | 0.00 | 0.00 | 0.00 | 53 | 1013.5 |
| 20260502163429 | 52 | 84 | 3.5 | 7.8 | 0.00 | 0.00 | 0.00 | 55 | 1013.5 |
| 20260502163330 | 51 | 58 | 3.5 | 7.8 | 0.00 | 0.00 | 0.00 | 56 | 1013.5 |
| 20260502163230 | 51 | 10 | 3.5 | 7.8 | 0.00 | 0.00 | 0.00 | 54 | 1013.5 |
| 20260502163131 | 51 | 355 | 3.5 | 7.8 | 0.00 | 0.00 | 0.00 | 55 | 1013.7 |
| 20260502163029 | 51 | 38 | 3.5 | 7.8 | 0.00 | 0.00 | 0.00 | 55 | 1013.7 |
| 20260502162929 | 51 | 22 | 3.5 | 7.8 | 0.00 | 0.00 | 0.00 | 54 | 1013.5 |
| 20260502162829 | 51 | 12 | 3.5 | 7.8 | 0.00 | 0.00 | 0.00 | 55 | 1013.5 |
| 20260502162731 | 51 | 341 | 2.6 | 7.8 | 0.00 | 0.00 | 0.00 | 54 | 1013.7 |
| 20260502162631 | 51 | 340 | 2.6 | 5.2 | 0.00 | 0.00 | 0.00 | 54 | 1013.7 |
| 20260502162529 | 51 | 82 | 2.6 | 5.2 | 0.00 | 0.00 | 0.00 | 54 | 1013.8 |
| 20260502162431 | 51 | 83 | 2.6 | 5.2 | 0.00 | 0.00 | 0.00 | 55 | 1013.7 |
| 20260502162328 | 51 | 41 | 2.6 | 5.2 | 0.00 | 0.00 | 0.00 | 56 | 1013.7 |
| 20260502162227 | 51 | 40 | 2.6 | 4.3 | 0.00 | 0.00 | 0.00 | 55 | 1013.8 |
| 20260502162129 | 50 | 40 | 2.6 | 4.3 | 0.00 | 0.00 | 0.00 | 55 | 1013.8 |
| 20260502162026 | 50 | 40 | 2.6 | 4.3 | 0.00 | 0.00 | 0.00 | 55 | 1013.9 |
| 20260502161926 | 50 | 342 | 2.6 | 4.3 | 0.00 | 0.00 | 0.00 | 56 | 1013.9 |
| 20260502161826 | 50 | 340 | 2.6 | 4.3 | 0.00 | 0.00 | 0.00 | 58 | 1013.9 |
| 20260502161726 | 50 | 47 | 2.6 | 4.3 | 0.00 | 0.00 | 0.00 | 58 | 1013.9 |
| 20260502161626 | 50 | 80 | 2.6 | 4.3 | 0.00 | 0.00 | 0.00 | 57 | 1013.9 |
| 20260502161525 | 50 | 80 | 2.6 | 4.3 | 0.00 | 0.00 | 0.00 | 58 | 1013.9 |
| 20260502161426 | 50 | 34 | 2.6 | 7.0 | 0.00 | 0.00 | 0.00 | 58 | 1014.0 |
| 20260502161325 | 50 | 18 | 2.6 | 7.0 | 0.00 | 0.00 | 0.00 | 57 | 1013.9 |
| 20260502161226 | 50 | 343 | 2.6 | 7.0 | 0.00 | 0.00 | 0.00 | 57 | 1014.0 |
| 20260502161126 | 50 | 343 | 2.6 | 7.0 | 0.00 | 0.00 | 0.00 | 59 | 1014.0 |
| 20260502161025 | 50 | 52 | 2.6 | 7.0 | 0.00 | 0.00 | 0.00 | 59 | 1014.0 |
| 20260502160925 | 50 | 53 | 2.6 | 7.0 | 0.00 | 0.00 | 0.00 | 59 | 1014.0 |
| 20260502160827 | 50 | 55 | 2.6 | 7.0 | 0.00 | 0.00 | 0.00 | 58 | 1014.0 |
| 20260502160725 | 50 | 31 | 2.6 | 7.0 | 0.00 | 0.00 | 0.00 | 58 | 1014.0 |
| 20260502160626 | 50 | 333 | 2.6 | 7.0 | 0.00 | 0.00 | 0.00 | 58 | 1014.1 |
| 20260502160526 | 50 | 313 | 2.6 | 7.0 | 0.00 | 0.00 | 0.00 | 59 | 1014.1 |
| 20260502160426 | 50 | 305 | 2.6 | 6.1 | 0.00 | 0.00 | 0.00 | 58 | 1014.0 |
| 20260502160326 | 50 | 24 | 2.6 | 6.1 | 0.00 | 0.00 | 0.00 | 56 | 1014.0 |
| 20260502160225 | 50 | 23 | 2.6 | 7.8 | 0.00 | 0.00 | 0.00 | 56 | 1013.9 |
| 20260502160126 | 50 | 340 | 2.6 | 7.8 | 0.00 | 0.00 | 0.00 | 56 | 1014.0 |
| 20260502152322 | 48 | 11 | 2.6 | 6.1 | 0.00 | 0.00 | 0.00 | 61 | 1014.0 |
| 20260502152221 | 48 | 18 | 2.6 | 6.1 | 0.00 | 0.00 | 0.00 | 63 | 1014.0 |
| 20260502152122 | 48 | 53 | 2.6 | 5.2 | 0.00 | 0.00 | 0.00 | 62 | 1014.0 |
| 20260502152022 | 48 | 40 | 2.6 | 5.2 | 0.00 | 0.00 | 0.00 | 63 | 1014.0 |
| 20260502151921 | 48 | 341 | 2.6 | 5.2 | 0.00 | 0.00 | 0.00 | 62 | 1014.0 |
| 20260502151821 | 48 | 324 | 2.6 | 5.2 | 0.00 | 0.00 | 0.00 | 62 | 1014.0 |
| 20260502151721 | 48 | 63 | 1.7 | 5.2 | 0.00 | 0.00 | 0.00 | 62 | 1014.0 |
| 20260502151622 | 48 | 20 | 2.6 | 5.2 | 0.00 | 0.00 | 0.00 | 61 | 1014.0 |
| 20260502151521 | 48 | 43 | 2.6 | 5.2 | 0.00 | 0.00 | 0.00 | 62 | 1014.0 |
| 20260502151422 | 48 | 329 | 2.6 | 5.2 | 0.00 | 0.00 | 0.00 | 62 | 1014.0 |
| 20260502151317 | 48 | 20 | 1.7 | 4.3 | 0.00 | 0.00 | 0.00 | 63 | 1014.0 |
| 20260502151217 | 48 | 29 | 1.7 | 4.3 | 0.00 | 0.00 | 0.00 | 64 | 1014.0 |
| 20260502151118 | 48 | 0 | 2.6 | 4.3 | 0.00 | 0.00 | 0.00 | 63 | 1014.0 |
| 20260502151017 | 48 | 5 | 2.6 | 4.3 | 0.00 | 0.00 | 0.00 | 63 | 1014.1 |
| 20260502150917 | 48 | 5 | 2.6 | 4.3 | 0.00 | 0.00 | 0.00 | 63 | 1014.0 |
| 20260502150819 | 48 | 17 | 2.6 | 4.3 | 0.00 | 0.00 | 0.00 | 62 | 1014.0 |
| 20260502150718 | 48 | 17 | 1.7 | 4.3 | 0.00 | 0.00 | 0.00 | 61 | 1014.0 |
| 20260502150618 | 48 | 355 | 1.7 | 4.3 | 0.00 | 0.00 | 0.00 | 62 | 1014.0 |
| 20260502150519 | 48 | 350 | 1.7 | 4.3 | 0.00 | 0.00 | 0.00 | 62 | 1014.0 |
| 20260502150419 | 48 | 26 | 1.7 | 4.3 | 0.00 | 0.00 | 0.00 | 62 | 1014.0 |
| 20260502150317 | 48 | 35 | 1.7 | 4.3 | 0.00 | 0.00 | 0.00 | 61 | 1014.0 |
| 20260502150217 | 48 | 9 | 1.7 | 4.3 | 0.00 | 0.00 | 0.00 | 61 | 1014.0 |
| 20260502150118 | 48 | 28 | 1.7 | 4.3 | 0.00 | 0.00 | 0.00 | 61 | 1014.1 |
| 20260502130656 | 48 | 342 | 5.2 | 8.7 | 0.00 | 0.00 | 0.00 | 71 | 1013.3 |
| 20260502130555 | 48 | 313 | 4.3 | 8.7 | 0.00 | 0.00 | 0.00 | 70 | 1013.3 |
| 20260502130456 | 48 | 323 | 4.3 | 8.7 | 0.00 | 0.00 | 0.00 | 70 | 1013.4 |
| 20260502130349 | 48 | 323 | 4.3 | 8.7 | 0.00 | 0.00 | 0.00 | 71 | 1013.4 |
| 20260502130249 | 48 | 300 | 4.3 | 8.7 | 0.00 | 0.00 | 0.00 | 71 | 1013.4 |
| 20260502130149 | 48 | 313 | 4.3 | 8.7 | 0.00 | 0.00 | 0.00 | 70 | 1013.4 |
| 20260502123811 | 48 | 326 | 3.5 | 6.1 | 0.00 | 0.00 | 0.00 | 74 | 1013.1 |
| 20260502123709 | 48 | 312 | 3.5 | 6.1 | 0.00 | 0.00 | 0.00 | 74 | 1012.9 |
| 20260502123609 | 48 | 309 | 3.5 | 6.1 | 0.00 | 0.00 | 0.00 | 74 | 1012.9 |
| 20260502123511 | 48 | 309 | 3.5 | 6.1 | 0.00 | 0.00 | 0.00 | 74 | 1012.9 |
| 20260502123409 | 48 | 343 | 3.5 | 6.1 | 0.00 | 0.00 | 0.00 | 73 | 1013.1 |
| 20260502123304 | 48 | 355 | 3.5 | 6.1 | 0.00 | 0.00 | 0.00 | 72 | 1013.1 |
| 20260502123203 | 48 | 350 | 3.5 | 6.1 | 0.00 | 0.00 | 0.00 | 72 | 1013.2 |
| 20260502123104 | 48 | 306 | 3.5 | 6.1 | 0.00 | 0.00 | 0.00 | 73 | 1013.1 |
| 20260502123004 | 48 | 292 | 3.5 | 6.1 | 0.00 | 0.00 | 0.00 | 75 | 1013.1 |
| 20260502122904 | 48 | 309 | 3.5 | 6.1 | 0.00 | 0.00 | 0.00 | 75 | 1013.1 |
| 20260502122754 | 48 | 286 | 3.5 | 6.1 | 0.00 | 0.00 | 0.00 | 76 | 1013.1 |
| 20260502122653 | 48 | 333 | 2.6 | 6.1 | 0.00 | 0.00 | 0.00 | 75 | 1013.2 |
| 20260502122554 | 48 | 325 | 2.6 | 6.1 | 0.00 | 0.00 | 0.00 | 75 | 1013.1 |
| 20260502122454 | 48 | 338 | 2.6 | 6.1 | 0.00 | 0.00 | 0.00 | 74 | 1013.2 |
| 20260502122353 | 48 | 313 | 2.6 | 6.1 | 0.00 | 0.00 | 0.00 | 75 | 1013.2 |
| 20260502122246 | 48 | 322 | 2.6 | 6.1 | 0.00 | 0.00 | 0.00 | 75 | 1013.2 |
| 20260502122145 | 48 | 340 | 2.6 | 6.1 | 0.00 | 0.00 | 0.00 | 75 | 1013.2 |
| 20260502122046 | 48 | 321 | 2.6 | 6.1 | 0.00 | 0.00 | 0.00 | 76 | 1013.2 |
| 20260502121945 | 48 | 308 | 2.6 | 6.1 | 0.00 | 0.00 | 0.00 | 75 | 1013.2 |
| 20260502121846 | 48 | 303 | 2.6 | 4.3 | 0.00 | 0.00 | 0.00 | 75 | 1013.2 |
| 20260502121743 | 48 | 325 | 2.6 | 4.3 | 0.00 | 0.00 | 0.00 | 75 | 1013.2 |
| 20260502121641 | 48 | 309 | 2.6 | 4.3 | 0.00 | 0.00 | 0.00 | 74 | 1013.3 |
| 20260502121539 | 48 | 305 | 2.6 | 8.7 | 0.00 | 0.00 | 0.00 | 75 | 1013.2 |
| 20260502121440 | 48 | 306 | 2.6 | 8.7 | 0.00 | 0.00 | 0.00 | 75 | 1013.1 |
| 20260502121340 | 48 | 11 | 2.6 | 8.7 | 0.00 | 0.00 | 0.00 | 75 | 1013.0 |
| 20260502121233 | 48 | 343 | 2.6 | 8.7 | 0.00 | 0.00 | 0.00 | 74 | 1012.9 |
| 20260502121134 | 48 | 343 | 2.6 | 8.7 | 0.00 | 0.00 | 0.00 | 74 | 1012.9 |
| 20260502121033 | 48 | 330 | 2.6 | 8.7 | 0.00 | 0.00 | 0.00 | 74 | 1012.9 |
| 20260502120932 | 48 | 329 | 2.6 | 8.7 | 0.00 | 0.00 | 0.00 | 74 | 1012.8 |
| 20260502120830 | 48 | 329 | 3.5 | 8.7 | 0.00 | 0.00 | 0.00 | 74 | 1012.8 |
| 20260502120727 | 48 | 334 | 3.5 | 8.7 | 0.00 | 0.00 | 0.00 | 73 | 1012.8 |
| 20260502120629 | 48 | 318 | 3.5 | 8.7 | 0.00 | 0.00 | 0.00 | 73 | 1012.7 |
| 20260502120525 | 48 | 323 | 3.5 | 8.7 | 0.00 | 0.00 | 0.00 | 73 | 1012.6 |
| 20260502120426 | 48 | 315 | 3.5 | 8.7 | 0.00 | 0.00 | 0.00 | 73 | 1012.8 |
| 20260502120324 | 48 | 329 | 3.5 | 8.7 | 0.00 | 0.00 | 0.00 | 73 | 1012.8 |
| 20260502120217 | 48 | 11 | 3.5 | 8.7 | 0.00 | 0.00 | 0.00 | 73 | 1012.8 |
| 20260502120118 | 48 | 335 | 3.5 | 8.7 | 0.00 | 0.00 | 0.00 | 73 | 1012.6 |
| 20260502115917 | 48 | 355 | 3.5 | 8.7 | 0.00 | 0.00 | 0.00 | 73 | 1012.9 |
| 20260502115818 | 48 | 355 | 3.5 | 8.7 | 0.00 | 0.00 | 0.00 | 73 | 1012.9 |
| 20260502115707 | 48 | 313 | 3.5 | 8.7 | 0.00 | 0.00 | 0.00 | 74 | 1012.8 |
| 20260502115607 | 48 | 317 | 3.5 | 7.8 | 0.00 | 0.00 | 0.00 | 74 | 1012.8 |
| 20260502115508 | 48 | 341 | 3.5 | 7.8 | 0.00 | 0.00 | 0.00 | 73 | 1012.9 |
| 20260502115406 | 48 | 350 | 3.5 | 8.7 | 0.00 | 0.00 | 0.00 | 73 | 1012.8 |
| 20260502115308 | 48 | 346 | 3.5 | 8.7 | 0.00 | 0.00 | 0.00 | 74 | 1012.8 |
| 20260502115201 | 48 | 343 | 3.5 | 8.7 | 0.00 | 0.00 | 0.00 | 75 | 1012.8 |
| 20260502115101 | 48 | 310 | 3.5 | 8.7 | 0.00 | 0.00 | 0.00 | 75 | 1012.8 |
| 20260502115001 | 48 | 0 | 4.3 | 8.7 | 0.00 | 0.00 | 0.00 | 75 | 1012.9 |
| 20260502114901 | 48 | 0 | 4.3 | 8.7 | 0.00 | 0.00 | 0.00 | 74 | 1012.8 |
| 20260502114801 | 48 | 0 | 4.3 | 8.7 | 0.00 | 0.00 | 0.00 | 75 | 1013.0 |
| 20260502114655 | 48 | 5 | 4.3 | 8.7 | 0.00 | 0.00 | 0.00 | 76 | 1013.0 |
| 20260502114555 | 48 | 327 | 4.3 | 8.7 | 0.00 | 0.00 | 0.00 | 76 | 1013.2 |
| 20260502114455 | 48 | 313 | 4.3 | 7.8 | 0.00 | 0.00 | 0.00 | 77 | 1013.0 |
| 20260502114355 | 48 | 344 | 4.3 | 7.8 | 0.00 | 0.00 | 0.00 | 77 | 1013.0 |
| 20260502114256 | 48 | 284 | 4.3 | 7.8 | 0.00 | 0.00 | 0.00 | 77 | 1012.9 |
| 20260502114147 | 48 | 329 | 3.5 | 7.8 | 0.00 | 0.00 | 0.00 | 77 | 1012.9 |
| 20260502114045 | 48 | 326 | 3.5 | 7.8 | 0.00 | 0.00 | 0.00 | 77 | 1012.9 |
| 20260502113946 | 48 | 307 | 3.5 | 7.8 | 0.00 | 0.00 | 0.00 | 77 | 1012.9 |
| 20260502113846 | 48 | 309 | 3.5 | 7.8 | 0.00 | 0.00 | 0.00 | 77 | 1012.9 |
| 20260502113746 | 48 | 348 | 3.5 | 7.8 | 0.00 | 0.00 | 0.00 | 77 | 1012.8 |
| 20260502113640 | 48 | 351 | 3.5 | 7.0 | 0.00 | 0.00 | 0.00 | 77 | 1012.9 |
| 20260502113539 | 48 | 355 | 3.5 | 7.0 | 0.00 | 0.00 | 0.00 | 77 | 1012.9 |
| 20260502113440 | 48 | 339 | 3.5 | 7.8 | 0.00 | 0.00 | 0.00 | 77 | 1012.9 |
| 20260502113339 | 48 | 320 | 3.5 | 7.8 | 0.00 | 0.00 | 0.00 | 77 | 1012.9 |
| 20260502113240 | 48 | 318 | 3.5 | 7.8 | 0.00 | 0.00 | 0.00 | 77 | 1012.9 |
| 20260502113134 | 48 | 304 | 4.3 | 7.8 | 0.00 | 0.00 | 0.00 | 77 | 1012.9 |
| 20260502113034 | 48 | 335 | 4.3 | 7.8 | 0.00 | 0.00 | 0.00 | 77 | 1012.9 |
| 20260502112934 | 48 | 330 | 4.3 | 7.8 | 0.00 | 0.00 | 0.00 | 78 | 1013.0 |
| 20260502112833 | 48 | 322 | 4.3 | 7.8 | 0.00 | 0.00 | 0.00 | 77 | 1012.8 |
| 20260502112733 | 48 | 310 | 3.5 | 7.8 | 0.00 | 0.00 | 0.00 | 78 | 1012.9 |
| 20260502112623 | 48 | 301 | 3.5 | 7.8 | 0.00 | 0.00 | 0.00 | 77 | 1012.9 |
| 20260502112524 | 48 | 317 | 3.5 | 7.8 | 0.00 | 0.00 | 0.00 | 77 | 1012.9 |
| 20260502112424 | 48 | 325 | 3.5 | 7.8 | 0.00 | 0.00 | 0.00 | 77 | 1012.8 |
| 20260502112323 | 48 | 311 | 3.5 | 6.1 | 0.00 | 0.00 | 0.00 | 78 | 1012.8 |
| 20260502112234 | 48 | 319 | 3.5 | 6.1 | 0.00 | 0.00 | 0.00 | 78 | 1012.7 |
| 20260502112118 | 48 | 306 | 3.5 | 6.1 | 0.00 | 0.00 | 0.00 | 78 | 1012.7 |
| 20260502112018 | 48 | 355 | 3.5 | 6.1 | 0.00 | 0.00 | 0.00 | 78 | 1012.8 |
| 20260502111917 | 48 | 319 | 3.5 | 6.1 | 0.00 | 0.00 | 0.00 | 78 | 1012.8 |
| 20260502111818 | 48 | 313 | 3.5 | 6.1 | 0.00 | 0.00 | 0.00 | 78 | 1012.8 |
| 20260502111717 | 48 | 313 | 3.5 | 6.1 | 0.00 | 0.00 | 0.00 | 78 | 1012.8 |
| 20260502111612 | 48 | 338 | 3.5 | 6.1 | 0.00 | 0.00 | 0.00 | 78 | 1012.8 |
| 20260502111511 | 48 | 297 | 3.5 | 6.1 | 0.00 | 0.00 | 0.00 | 78 | 1012.9 |
| 20260502111412 | 48 | 313 | 3.5 | 6.1 | 0.00 | 0.00 | 0.00 | 78 | 1012.9 |
| 20260502111310 | 48 | 315 | 3.5 | 6.1 | 0.00 | 0.00 | 0.00 | 78 | 1012.8 |
| 20260502111212 | 48 | 302 | 2.6 | 7.0 | 0.00 | 0.00 | 0.00 | 77 | 1012.6 |
| 20260502111102 | 48 | 348 | 3.5 | 7.0 | 0.00 | 0.00 | 0.00 | 77 | 1012.7 |
| 20260502111002 | 48 | 325 | 3.5 | 7.8 | 0.00 | 0.00 | 0.00 | 77 | 1012.6 |
| 20260502110902 | 48 | 309 | 3.5 | 7.8 | 0.00 | 0.00 | 0.00 | 77 | 1012.7 |
| 20260502110800 | 48 | 331 | 3.5 | 7.8 | 0.00 | 0.00 | 0.00 | 77 | 1012.7 |
| 20260502110701 | 48 | 327 | 4.3 | 7.8 | 0.00 | 0.00 | 0.00 | 77 | 1012.7 |
| 20260502110558 | 48 | 355 | 4.3 | 7.8 | 0.00 | 0.00 | 0.00 | 77 | 1012.7 |
| 20260502110456 | 48 | 355 | 4.3 | 8.7 | 0.00 | 0.00 | 0.00 | 77 | 1012.7 |
| 20260502110354 | 48 | 355 | 4.3 | 8.7 | 0.00 | 0.00 | 0.00 | 77 | 1012.8 |
| 20260502110258 | 48 | 5 | 4.3 | 8.7 | 0.00 | 0.00 | 0.00 | 77 | 1012.8 |
| 20260502110156 | 48 | 355 | 5.2 | 8.7 | 0.00 | 0.00 | 0.00 | 77 | 1012.8 |
| 20260502110052 | 48 | 339 | 5.2 | 8.7 | 0.00 | 0.00 | 0.00 | 77 | 1012.8 |
| 20260502105950 | 48 | 311 | 5.2 | 8.7 | 0.00 | 0.00 | 0.00 | 76 | 1012.8 |
| 20260502105850 | 48 | 344 | 4.3 | 8.7 | 0.00 | 0.00 | 0.00 | 76 | 1012.8 |
| 20260502105749 | 48 | 339 | 4.3 | 8.7 | 0.00 | 0.00 | 0.00 | 77 | 1012.7 |
| 20260502105649 | 48 | 307 | 4.3 | 8.7 | 0.00 | 0.00 | 0.00 | 77 | 1012.8 |
| 20260502105540 | 48 | 318 | 4.3 | 7.8 | 0.00 | 0.00 | 0.00 | 77 | 1012.6 |
| 20260502105440 | 48 | 355 | 4.3 | 7.8 | 0.00 | 0.00 | 0.00 | 77 | 1012.6 |
| 20260502105340 | 48 | 355 | 4.3 | 7.8 | 0.00 | 0.00 | 0.00 | 77 | 1012.5 |
| 20260502105238 | 48 | 321 | 4.3 | 7.8 | 0.00 | 0.00 | 0.00 | 77 | 1012.5 |
| 20260502105139 | 48 | 326 | 4.3 | 7.8 | 0.00 | 0.00 | 0.00 | 77 | 1012.4 |
| 20260502105035 | 48 | 355 | 4.3 | 7.8 | 0.00 | 0.00 | 0.00 | 77 | 1012.4 |
| 20260502104934 | 48 | 341 | 4.3 | 7.8 | 0.00 | 0.00 | 0.00 | 78 | 1012.4 |
| 20260502104834 | 48 | 345 | 4.3 | 7.8 | 0.00 | 0.00 | 0.00 | 78 | 1012.4 |
| 20260502104734 | 48 | 313 | 4.3 | 7.8 | 0.00 | 0.00 | 0.00 | 78 | 1012.5 |
| 20260502104633 | 48 | 338 | 4.3 | 7.8 | 0.00 | 0.00 | 0.00 | 78 | 1012.6 |
| 20260502104528 | 48 | 297 | 4.3 | 7.8 | 0.00 | 0.00 | 0.00 | 77 | 1012.6 |
| 20260502104430 | 48 | 325 | 4.3 | 7.8 | 0.00 | 0.00 | 0.00 | 78 | 1012.6 |
| 20260502104329 | 48 | 331 | 4.3 | 7.8 | 0.00 | 0.00 | 0.00 | 78 | 1012.6 |
| 20260502104229 | 48 | 349 | 3.5 | 7.8 | 0.00 | 0.00 | 0.00 | 78 | 1012.6 |
| 20260502104128 | 48 | 325 | 3.5 | 7.8 | 0.00 | 0.00 | 0.00 | 79 | 1012.6 |
| 20260502104021 | 48 | 329 | 3.5 | 7.8 | 0.00 | 0.00 | 0.00 | 78 | 1012.5 |
| 20260502103922 | 48 | 355 | 3.5 | 7.8 | 0.00 | 0.00 | 0.00 | 79 | 1012.5 |
| 20260502103819 | 48 | 319 | 3.5 | 7.8 | 0.00 | 0.00 | 0.00 | 78 | 1012.4 |
| 20260502103718 | 48 | 322 | 3.5 | 6.1 | 0.00 | 0.00 | 0.00 | 78 | 1012.4 |
| 20260502103618 | 48 | 311 | 2.6 | 6.1 | 0.00 | 0.00 | 0.00 | 78 | 1012.5 |
| 20260502103513 | 48 | 311 | 2.6 | 6.1 | 0.00 | 0.00 | 0.00 | 78 | 1012.4 |
| 20260502103413 | 48 | 15 | 2.6 | 6.1 | 0.00 | 0.00 | 0.00 | 78 | 1012.4 |
| 20260502103313 | 48 | 34 | 2.6 | 4.3 | 0.00 | 0.00 | 0.00 | 78 | 1012.4 |
| 20260502103214 | 48 | 355 | 2.6 | 4.3 | 0.00 | 0.00 | 0.00 | 78 | 1012.4 |
| 20260502103111 | 48 | 0 | 2.6 | 4.3 | 0.00 | 0.00 | 0.00 | 78 | 1012.3 |
| 20260502103008 | 48 | 351 | 2.6 | 4.3 | 0.00 | 0.00 | 0.00 | 79 | 1012.3 |
| 20260502102905 | 48 | 355 | 2.6 | 4.3 | 0.00 | 0.00 | 0.00 | 79 | 1012.3 |
| 20260502102806 | 48 | 323 | 2.6 | 6.1 | 0.00 | 0.00 | 0.00 | 79 | 1012.4 |
| 20260502102706 | 48 | 313 | 2.6 | 6.1 | 0.00 | 0.00 | 0.00 | 79 | 1012.4 |
| 20260502102605 | 48 | 308 | 2.6 | 6.1 | 0.00 | 0.00 | 0.00 | 78 | 1012.4 |
| 20260502102455 | 48 | 331 | 3.5 | 6.1 | 0.00 | 0.00 | 0.00 | 79 | 1012.4 |
| 20260502102355 | 48 | 327 | 3.5 | 6.1 | 0.00 | 0.00 | 0.00 | 78 | 1012.4 |
| 20260502102256 | 48 | 332 | 3.5 | 6.1 | 0.00 | 0.00 | 0.00 | 78 | 1012.4 |
| 20260502102155 | 48 | 332 | 3.5 | 6.1 | 0.00 | 0.00 | 0.00 | 78 | 1012.4 |
| 20260502102055 | 48 | 333 | 3.5 | 6.1 | 0.00 | 0.00 | 0.00 | 78 | 1012.4 |
| 20260502101952 | 48 | 326 | 2.6 | 6.1 | 0.00 | 0.00 | 0.00 | 78 | 1012.4 |
| 20260502101848 | 48 | 306 | 2.6 | 6.1 | 0.00 | 0.00 | 0.00 | 78 | 1012.3 |
| 20260502101749 | 49 | 325 | 2.6 | 5.2 | 0.00 | 0.00 | 0.00 | 78 | 1012.3 |
| 20260502101649 | 49 | 310 | 2.6 | 5.2 | 0.00 | 0.00 | 0.00 | 78 | 1012.2 |
| 20260502101549 | 49 | 333 | 2.6 | 5.2 | 0.00 | 0.00 | 0.00 | 78 | 1012.2 |
| 20260502101444 | 49 | 331 | 2.6 | 5.2 | 0.00 | 0.00 | 0.00 | 78 | 1012.3 |
| 20260502101342 | 49 | 355 | 2.6 | 5.2 | 0.00 | 0.00 | 0.00 | 78 | 1012.2 |
| 20260502101244 | 49 | 355 | 2.6 | 5.2 | 0.00 | 0.00 | 0.00 | 78 | 1012.3 |
| 20260502101144 | 49 | 341 | 2.6 | 5.2 | 0.00 | 0.00 | 0.00 | 78 | 1012.3 |
| 20260502101044 | 49 | 338 | 2.6 | 5.2 | 0.00 | 0.00 | 0.00 | 78 | 1012.3 |
| 20260502100935 | 49 | 333 | 2.6 | 5.2 | 0.00 | 0.00 | 0.00 | 78 | 1012.3 |
| 20260502100835 | 49 | 355 | 2.6 | 5.2 | 0.00 | 0.00 | 0.00 | 78 | 1012.2 |
| 20260502100735 | 49 | 325 | 3.5 | 7.8 | 0.00 | 0.00 | 0.00 | 78 | 1012.2 |
| 20260502100636 | 49 | 310 | 3.5 | 7.8 | 0.00 | 0.00 | 0.00 | 78 | 1012.3 |
| 20260502100534 | 49 | 327 | 3.5 | 7.8 | 0.00 | 0.00 | 0.00 | 78 | 1012.4 |
| 20260502100433 | 49 | 328 | 3.5 | 7.8 | 0.00 | 0.00 | 0.00 | 78 | 1012.4 |
| 20260502100330 | 49 | 313 | 4.3 | 7.8 | 0.00 | 0.00 | 0.00 | 77 | 1012.5 |
| 20260502100230 | 49 | 300 | 4.3 | 7.8 | 0.00 | 0.00 | 0.00 | 78 | 1012.5 |
| 20260502100130 | 49 | 328 | 4.3 | 7.8 | 0.00 | 0.00 | 0.00 | 77 | 1012.5 |
| 20260502091522 | 49 | 318 | 4.3 | 7.0 | 0.00 | 0.00 | 0.00 | 78 | 1012.9 |
| 20260502091422 | 49 | 328 | 4.3 | 7.0 | 0.00 | 0.00 | 0.00 | 78 | 1012.9 |
| 20260502091322 | 49 | 325 | 3.5 | 7.0 | 0.00 | 0.00 | 0.00 | 79 | 1012.9 |
| 20260502091218 | 49 | 293 | 3.5 | 7.0 | 0.00 | 0.00 | 0.00 | 79 | 1012.9 |
| 20260502091117 | 49 | 299 | 3.5 | 7.0 | 0.00 | 0.00 | 0.00 | 79 | 1012.9 |
| 20260502091018 | 49 | 299 | 3.5 | 6.1 | 0.00 | 0.00 | 0.00 | 79 | 1013.0 |
| 20260502090915 | 49 | 318 | 3.5 | 6.1 | 0.00 | 0.00 | 0.00 | 79 | 1013.0 |
| 20260502090804 | 49 | 317 | 3.5 | 6.1 | 0.00 | 0.00 | 0.00 | 79 | 1013.0 |
| 20260502090706 | 50 | 328 | 3.5 | 6.1 | 0.00 | 0.00 | 0.00 | 79 | 1012.9 |
| 20260502090606 | 50 | 338 | 3.5 | 6.1 | 0.00 | 0.00 | 0.00 | 79 | 1012.9 |
| 20260502090505 | 50 | 312 | 3.5 | 7.0 | 0.00 | 0.00 | 0.00 | 79 | 1012.9 |
| 20260502090405 | 50 | 321 | 3.5 | 7.8 | 0.00 | 0.00 | 0.00 | 79 | 1012.8 |
| 20260502090302 | 50 | 309 | 3.5 | 7.8 | 0.00 | 0.00 | 0.00 | 79 | 1012.8 |
| 20260502090200 | 50 | 331 | 3.5 | 7.8 | 0.00 | 0.00 | 0.00 | 79 | 1012.6 |
| 20260502071525 | 51 | 337 | 2.6 | 7.0 | 0.00 | 0.00 | 0.00 | 80 | 1012.2 |
| 20260502071424 | 51 | 332 | 2.6 | 7.0 | 0.00 | 0.00 | 0.00 | 80 | 1012.1 |
| 20260502071325 | 51 | 311 | 2.6 | 7.0 | 0.00 | 0.00 | 0.00 | 80 | 1012.1 |
| 20260502071226 | 51 | 327 | 2.6 | 7.0 | 0.00 | 0.00 | 0.00 | 80 | 1012.1 |
| 20260502071125 | 51 | 341 | 2.6 | 7.0 | 0.00 | 0.00 | 0.00 | 80 | 1012.0 |
| 20260502071021 | 51 | 323 | 1.7 | 4.3 | 0.00 | 0.00 | 0.00 | 80 | 1012.0 |
| 20260502070919 | 51 | 348 | 1.7 | 4.3 | 0.00 | 0.00 | 0.00 | 80 | 1012.0 |
| 20260502070818 | 51 | 333 | 1.7 | 4.3 | 0.00 | 0.00 | 0.00 | 80 | 1011.8 |
| 20260502070720 | 51 | 329 | 1.7 | 4.3 | 0.00 | 0.00 | 0.00 | 80 | 1012.0 |
| 20260502070619 | 51 | 326 | 1.7 | 4.3 | 0.00 | 0.00 | 0.00 | 80 | 1011.8 |
| 20260502070509 | 51 | 327 | 1.7 | 4.3 | 0.00 | 0.00 | 0.00 | 80 | 1011.8 |
| 20260502070408 | 51 | 323 | 1.7 | 4.3 | 0.00 | 0.00 | 0.00 | 80 | 1011.8 |
| 20260502070310 | 51 | 344 | 1.7 | 4.3 | 0.00 | 0.00 | 0.00 | 80 | 1011.7 |
| 20260502070210 | 51 | 346 | 1.7 | 4.3 | 0.00 | 0.00 | 0.00 | 80 | 1011.8 |
| 20260502070110 | 51 | 346 | 1.7 | 4.3 | 0.00 | 0.00 | 0.00 | 80 | 1012.0 |
| 20260502070002 | 51 | 11 | 1.7 | 3.5 | 0.00 | 0.00 | 0.00 | 80 | 1012.0 |
| 20260502065903 | 51 | 13 | 1.7 | 3.5 | 0.00 | 0.00 | 0.00 | 81 | 1012.0 |
| 20260502065803 | 51 | 12 | 1.7 | 2.6 | 0.00 | 0.00 | 0.00 | 81 | 1011.8 |
| 20260502065704 | 51 | 12 | 1.7 | 2.6 | 0.00 | 0.00 | 0.00 | 80 | 1011.8 |
| 20260502065604 | 51 | 14 | 1.7 | 2.6 | 0.00 | 0.00 | 0.00 | 80 | 1011.8 |
| 20260502065503 | 51 | 14 | 1.7 | 2.6 | 0.00 | 0.00 | 0.00 | 80 | 1011.8 |
| 20260502065402 | 51 | 14 | 1.7 | 2.6 | 0.00 | 0.00 | 0.00 | 80 | 1011.8 |
| 20260502065306 | 51 | 5 | 1.7 | 2.6 | 0.00 | 0.00 | 0.00 | 80 | 1011.8 |
| 20260502065203 | 51 | 5 | 1.7 | 2.6 | 0.00 | 0.00 | 0.00 | 81 | 1012.0 |
| 20260502065103 | 51 | 15 | 0.9 | 2.6 | 0.00 | 0.00 | 0.00 | 80 | 1012.0 |
| 20260502065004 | 51 | 15 | 0.9 | 2.6 | 0.00 | 0.00 | 0.00 | 80 | 1012.0 |
| 20260502064903 | 51 | 15 | 0.9 | 2.6 | 0.00 | 0.00 | 0.00 | 81 | 1012.0 |
| 20260502064802 | 51 | 15 | 0.9 | 2.6 | 0.00 | 0.00 | 0.00 | 81 | 1012.0 |
| 20260502064702 | 51 | 14 | 0.9 | 2.6 | 0.00 | 0.00 | 0.00 | 81 | 1012.0 |
| 20260502064602 | 51 | 14 | 0.9 | 2.6 | 0.00 | 0.00 | 0.00 | 81 | 1012.1 |
| 20260502064503 | 51 | 14 | 0.9 | 2.6 | 0.00 | 0.00 | 0.00 | 81 | 1012.1 |
| 20260502064404 | 51 | 14 | 0.9 | 2.6 | 0.00 | 0.00 | 0.00 | 81 | 1012.1 |
| 20260502064300 | 51 | 14 | 0.9 | 3.5 | 0.00 | 0.00 | 0.00 | 81 | 1012.2 |
| 20260502064156 | 51 | 14 | 1.7 | 3.5 | 0.00 | 0.00 | 0.00 | 81 | 1012.2 |
| 20260502064056 | 51 | 14 | 1.7 | 3.5 | 0.00 | 0.00 | 0.00 | 81 | 1012.2 |
| 20260502063957 | 51 | 14 | 1.7 | 3.5 | 0.00 | 0.00 | 0.00 | 81 | 1012.2 |
| 20260502063857 | 51 | 14 | 1.7 | 3.5 | 0.00 | 0.00 | 0.00 | 81 | 1012.2 |
| 20260502063754 | 51 | 5 | 1.7 | 3.5 | 0.00 | 0.00 | 0.00 | 81 | 1012.1 |
| 20260502063650 | 51 | 38 | 1.7 | 3.5 | 0.00 | 0.00 | 0.00 | 81 | 1012.2 |
| 20260502063551 | 51 | 38 | 0.9 | 3.5 | 0.00 | 0.00 | 0.00 | 81 | 1012.2 |
| 20260502063450 | 51 | 38 | 0.9 | 3.5 | 0.00 | 0.00 | 0.00 | 81 | 1012.2 |
| 20260502063348 | 51 | 38 | 0.9 | 3.5 | 0.00 | 0.00 | 0.00 | 81 | 1012.3 |
| 20260502063249 | 51 | 11 | 0.9 | 2.6 | 0.00 | 0.00 | 0.00 | 81 | 1012.2 |
| 20260502063149 | 51 | 5 | 0.9 | 2.6 | 0.00 | 0.00 | 0.00 | 81 | 1012.2 |
| 20260502063048 | 51 | 5 | 0.9 | 2.6 | 0.00 | 0.00 | 0.00 | 81 | 1012.3 |
| 20260502062946 | 51 | 5 | 0.9 | 4.3 | 0.00 | 0.00 | 0.00 | 81 | 1012.4 |
| 20260502062848 | 51 | 5 | 0.9 | 4.3 | 0.00 | 0.00 | 0.00 | 81 | 1012.4 |
| 20260502062746 | 51 | 5 | 0.9 | 4.3 | 0.00 | 0.00 | 0.00 | 81 | 1012.4 |
| 20260502062646 | 51 | 9 | 1.7 | 4.3 | 0.00 | 0.00 | 0.00 | 80 | 1012.4 |
| 20260502062548 | 52 | 10 | 1.7 | 4.3 | 0.00 | 0.00 | 0.00 | 80 | 1012.4 |
| 20260502062446 | 52 | 10 | 1.7 | 4.3 | 0.00 | 0.00 | 0.00 | 80 | 1012.4 |
| 20260502062342 | 52 | 0 | 2.6 | 4.3 | 0.00 | 0.00 | 0.00 | 80 | 1012.5 |
| 20260502062243 | 52 | 0 | 2.6 | 7.0 | 0.00 | 0.00 | 0.00 | 80 | 1012.4 |
| 20260502062143 | 52 | 10 | 2.6 | 7.0 | 0.00 | 0.00 | 0.00 | 80 | 1012.4 |
| 20260502062043 | 52 | 5 | 3.5 | 7.0 | 0.00 | 0.00 | 0.00 | 80 | 1012.5 |
| 20260502061942 | 52 | 0 | 3.5 | 10.4 | 0.00 | 0.00 | 0.00 | 80 | 1012.5 |
| 20260502061841 | 52 | 5 | 3.5 | 10.4 | 0.00 | 0.00 | 0.00 | 80 | 1012.5 |
| 20260502061741 | 52 | 18 | 4.3 | 10.4 | 0.00 | 0.00 | 0.00 | 80 | 1012.6 |
| 20260502061641 | 52 | 5 | 4.3 | 10.4 | 0.00 | 0.00 | 0.00 | 80 | 1012.5 |
| 20260502061540 | 52 | 5 | 4.3 | 10.4 | 0.00 | 0.00 | 0.00 | 80 | 1012.6 |
| 20260502061439 | 52 | 355 | 4.3 | 10.4 | 0.00 | 0.00 | 0.00 | 80 | 1012.5 |
| 20260502061339 | 52 | 329 | 5.2 | 10.4 | 0.00 | 0.00 | 0.00 | 80 | 1012.6 |
| 20260502061239 | 52 | 318 | 5.2 | 10.4 | 0.00 | 0.00 | 0.00 | 80 | 1012.6 |
| 20260502061139 | 52 | 334 | 5.2 | 10.4 | 0.00 | 0.00 | 0.00 | 80 | 1012.6 |
| 20260502061038 | 52 | 333 | 5.2 | 10.4 | 0.00 | 0.00 | 0.00 | 80 | 1012.6 |
| 20260502060940 | 52 | 317 | 5.2 | 8.7 | 0.00 | 0.00 | 0.00 | 80 | 1012.6 |
| 20260502060838 | 52 | 329 | 5.2 | 8.7 | 0.00 | 0.00 | 0.00 | 80 | 1012.6 |
| 20260502060739 | 52 | 338 | 5.2 | 8.7 | 0.00 | 0.00 | 0.00 | 80 | 1012.6 |
| 20260502060638 | 52 | 318 | 5.2 | 8.7 | 0.00 | 0.00 | 0.00 | 80 | 1012.5 |
| 20260502060538 | 52 | 325 | 5.2 | 8.7 | 0.00 | 0.00 | 0.00 | 80 | 1012.5 |
| 20260502060439 | 52 | 346 | 5.2 | 8.7 | 0.00 | 0.00 | 0.00 | 80 | 1012.5 |
| 20260502060334 | 52 | 317 | 5.2 | 8.7 | 0.00 | 0.00 | 0.00 | 80 | 1012.5 |
| 20260502060234 | 52 | 321 | 5.2 | 8.7 | 0.00 | 0.00 | 0.00 | 80 | 1012.5 |
| 20260502060134 | 52 | 288 | 5.2 | 8.7 | 0.00 | 0.00 | 0.00 | 80 | 1012.6 |
| 20260502060034 | 52 | 327 | 5.2 | 8.7 | 0.00 | 0.00 | 0.00 | 80 | 1012.6 |
| 20260502055935 | 52 | 299 | 4.3 | 8.7 | 0.00 | 0.00 | 0.00 | 81 | 1012.6 |
| 20260502055834 | 52 | 313 | 4.3 | 8.7 | 0.00 | 0.00 | 0.00 | 81 | 1012.6 |
| 20260502055735 | 52 | 300 | 4.3 | 8.7 | 0.00 | 0.00 | 0.00 | 81 | 1012.6 |
| 20260502055634 | 52 | 321 | 5.2 | 8.7 | 0.00 | 0.00 | 0.00 | 80 | 1012.5 |
| 20260502055536 | 52 | 325 | 5.2 | 8.7 | 0.00 | 0.00 | 0.00 | 80 | 1012.6 |
| 20260502055432 | 52 | 313 | 5.2 | 8.7 | 0.00 | 0.00 | 0.00 | 80 | 1012.6 |
| 20260502055333 | 52 | 315 | 5.2 | 8.7 | 0.00 | 0.00 | 0.00 | 80 | 1012.7 |
| 20260502055232 | 52 | 322 | 5.2 | 8.7 | 0.00 | 0.00 | 0.00 | 80 | 1012.8 |
| 20260502055132 | 52 | 305 | 5.2 | 8.7 | 0.00 | 0.00 | 0.00 | 80 | 1012.7 |
| 20260502055032 | 52 | 321 | 4.3 | 8.7 | 0.00 | 0.00 | 0.00 | 80 | 1012.7 |
| 20260502054934 | 52 | 306 | 4.3 | 8.7 | 0.00 | 0.00 | 0.00 | 80 | 1012.8 |
| 20260502054834 | 52 | 322 | 4.3 | 8.7 | 0.00 | 0.00 | 0.00 | 80 | 1012.8 |
| 20260502054731 | 52 | 286 | 4.3 | 8.7 | 0.00 | 0.00 | 0.00 | 80 | 1012.8 |
| 20260502054626 | 52 | 308 | 3.5 | 8.7 | 0.00 | 0.00 | 0.00 | 80 | 1012.8 |
| 20260502054528 | 52 | 314 | 3.5 | 8.7 | 0.00 | 0.00 | 0.00 | 81 | 1012.7 |
| 20260502054324 | 52 | 323 | 2.6 | 8.7 | 0.00 | 0.00 | 0.00 | 82 | 1012.8 |
| 20260502054225 | 52 | 313 | 2.6 | 8.7 | 0.00 | 0.00 | 0.00 | 82 | 1012.8 |
| 20260502054124 | 52 | 307 | 1.7 | 5.2 | 0.00 | 0.00 | 0.00 | 83 | 1012.8 |
| 20260502054025 | 52 | 313 | 1.7 | 5.2 | 0.00 | 0.00 | 0.00 | 83 | 1012.8 |
| 20260502053925 | 52 | 313 | 1.7 | 5.2 | 0.00 | 0.00 | 0.00 | 84 | 1012.8 |
| 20260502053825 | 52 | 275 | 1.7 | 5.2 | 0.00 | 0.00 | 0.00 | 84 | 1012.8 |
| 20260502053724 | 52 | 266 | 0.9 | 5.2 | 0.00 | 0.00 | 0.00 | 84 | 1012.8 |
| 20260502053624 | 52 | 279 | 0.9 | 2.6 | 0.00 | 0.00 | 0.00 | 84 | 1012.6 |
| 20260502053525 | 52 | 274 | 0.9 | 2.6 | 0.00 | 0.00 | 0.00 | 84 | 1012.7 |
| 20260502053420 | 52 | 274 | 0.9 | 2.6 | 0.00 | 0.00 | 0.00 | 84 | 1012.6 |
| 20260502053321 | 52 | 274 | 0.9 | 2.6 | 0.00 | 0.00 | 0.00 | 84 | 1012.6 |
| 20260502053221 | 52 | 277 | 0.9 | 1.7 | 0.00 | 0.00 | 0.00 | 84 | 1012.6 |
| 20260502053121 | 52 | 277 | 0.9 | 1.7 | 0.00 | 0.00 | 0.00 | 84 | 1012.6 |
| 20260502053021 | 52 | 277 | 0.9 | 1.7 | 0.00 | 0.00 | 0.00 | 84 | 1012.6 |
| 20260502052921 | 52 | 277 | 0.9 | 1.7 | 0.00 | 0.00 | 0.00 | 84 | 1012.7 |
| 20260502052819 | 52 | 277 | 0.0 | 1.7 | 0.00 | 0.00 | 0.00 | 83 | 1012.7 |
| 20260502052719 | 52 | 277 | 0.0 | 7.8 | 0.00 | 0.00 | 0.00 | 83 | 1012.7 |
| 20260502052618 | 52 | 277 | 0.9 | 7.8 | 0.00 | 0.00 | 0.00 | 83 | 1012.8 |
| 20260502052519 | 52 | 277 | 0.9 | 7.8 | 0.00 | 0.00 | 0.00 | 83 | 1012.8 |
| 20260502052419 | 52 | 278 | 0.9 | 7.8 | 0.00 | 0.00 | 0.00 | 83 | 1012.8 |
| 20260502052318 | 52 | 278 | 0.9 | 7.8 | 0.00 | 0.00 | 0.00 | 83 | 1012.8 |
| 20260502052218 | 52 | 278 | 1.7 | 7.8 | 0.00 | 0.00 | 0.00 | 83 | 1012.8 |
| 20260502052120 | 52 | 278 | 1.7 | 7.8 | 0.00 | 0.00 | 0.00 | 83 | 1012.8 |
| 20260502052018 | 52 | 278 | 2.6 | 7.8 | 0.00 | 0.00 | 0.00 | 83 | 1012.7 |
| 20260502051920 | 52 | 284 | 2.6 | 7.8 | 0.00 | 0.00 | 0.00 | 83 | 1012.8 |
| 20260502051818 | 52 | 284 | 3.5 | 7.8 | 0.00 | 0.00 | 0.00 | 83 | 1012.7 |
| 20260502051720 | 53 | 288 | 3.5 | 7.8 | 0.00 | 0.00 | 0.00 | 83 | 1012.8 |
| 20260502051619 | 53 | 291 | 4.3 | 7.8 | 0.00 | 0.00 | 0.00 | 83 | 1012.7 |
| 20260502051519 | 53 | 324 | 4.3 | 7.8 | 0.00 | 0.00 | 0.00 | 83 | 1012.7 |
| 20260502051419 | 53 | 298 | 4.3 | 7.8 | 0.00 | 0.00 | 0.00 | 83 | 1012.7 |
| 20260502051319 | 53 | 319 | 4.3 | 7.8 | 0.00 | 0.00 | 0.00 | 83 | 1012.7 |
| 20260502051218 | 53 | 332 | 4.3 | 7.8 | 0.00 | 0.00 | 0.00 | 83 | 1012.7 |
| 20260502051118 | 53 | 330 | 4.3 | 7.8 | 0.00 | 0.00 | 0.00 | 83 | 1012.6 |
| 20260502051020 | 53 | 302 | 4.3 | 7.8 | 0.00 | 0.00 | 0.00 | 83 | 1012.5 |
| 20260502050920 | 53 | 309 | 4.3 | 7.8 | 0.00 | 0.00 | 0.00 | 82 | 1012.6 |
| 20260502050818 | 53 | 317 | 4.3 | 7.8 | 0.00 | 0.00 | 0.00 | 82 | 1012.6 |
| 20260502050719 | 53 | 276 | 4.3 | 7.8 | 0.00 | 0.00 | 0.00 | 82 | 1012.6 |
| 20260502050619 | 53 | 302 | 4.3 | 7.8 | 0.00 | 0.00 | 0.00 | 82 | 1012.6 |
| 20260502050519 | 53 | 319 | 4.3 | 7.8 | 0.00 | 0.00 | 0.00 | 82 | 1012.6 |
| 20260502050418 | 53 | 308 | 4.3 | 7.8 | 0.00 | 0.00 | 0.00 | 82 | 1012.6 |
| 20260502050319 | 53 | 320 | 3.5 | 7.8 | 0.00 | 0.00 | 0.00 | 82 | 1012.6 |
| 20260502050219 | 53 | 314 | 3.5 | 7.8 | 0.00 | 0.00 | 0.00 | 82 | 1012.6 |
| 20260502050116 | 53 | 285 | 2.6 | 7.8 | 0.00 | 0.00 | 0.00 | 82 | 1012.6 |
| 20260502050016 | 53 | 318 | 2.6 | 7.8 | 0.00 | 0.00 | 0.00 | 82 | 1012.6 |
| 20260502045915 | 53 | 331 | 1.7 | 7.8 | 0.00 | 0.00 | 0.00 | 82 | 1012.6 |
| 20260502045814 | 53 | 317 | 1.7 | 7.0 | 0.00 | 0.00 | 0.00 | 81 | 1012.5 |
| 20260502045715 | 53 | 333 | 0.9 | 7.0 | 0.00 | 0.00 | 0.00 | 81 | 1012.6 |
| 20260502045614 | 53 | 350 | 0.0 | 7.0 | 0.00 | 0.00 | 0.00 | 81 | 1012.5 |
| 20260502045515 | 53 | 323 | 0.0 | 2.6 | 0.00 | 0.00 | 0.00 | 81 | 1012.6 |
| 20260502045415 | 53 | 177 | 0.0 | 2.6 | 0.00 | 0.00 | 0.00 | 81 | 1012.5 |
| 20260502045316 | 53 | 177 | 0.0 | 2.6 | 0.00 | 0.00 | 0.00 | 81 | 1012.5 |
| 20260502045216 | 53 | 177 | 0.0 | 2.6 | 0.00 | 0.00 | 0.00 | 81 | 1012.4 |
| 20260502045116 | 53 | 177 | 0.9 | 2.6 | 0.00 | 0.00 | 0.00 | 81 | 1012.4 |
| 20260502045014 | 53 | 177 | 0.9 | 2.6 | 0.00 | 0.00 | 0.00 | 81 | 1012.4 |
| 20260502044916 | 53 | 177 | 0.9 | 2.6 | 0.00 | 0.00 | 0.00 | 81 | 1012.4 |
| 20260502044814 | 53 | 177 | 0.9 | 2.6 | 0.00 | 0.00 | 0.00 | 81 | 1012.3 |
| 20260502044716 | 53 | 177 | 0.9 | 2.6 | 0.00 | 0.00 | 0.00 | 81 | 1012.4 |
| 20260502044614 | 53 | 177 | 0.9 | 2.6 | 0.00 | 0.00 | 0.00 | 81 | 1012.5 |
| 20260502044515 | 53 | 177 | 0.9 | 2.6 | 0.00 | 0.00 | 0.00 | 81 | 1012.4 |
| 20260502044414 | 53 | 177 | 0.9 | 2.6 | 0.00 | 0.00 | 0.00 | 81 | 1012.4 |
| 20260502044314 | 53 | 176 | 0.9 | 2.6 | 0.00 | 0.00 | 0.00 | 82 | 1012.4 |
| 20260502044214 | 53 | 176 | 0.9 | 2.6 | 0.00 | 0.00 | 0.00 | 81 | 1012.4 |
| 20260502044114 | 53 | 176 | 0.9 | 2.6 | 0.00 | 0.00 | 0.00 | 81 | 1012.4 |
| 20260502044014 | 53 | 176 | 0.9 | 2.6 | 0.00 | 0.00 | 0.00 | 81 | 1012.4 |
| 20260502043914 | 53 | 176 | 0.9 | 2.6 | 0.00 | 0.00 | 0.00 | 81 | 1012.4 |
| 20260502043814 | 53 | 176 | 0.9 | 2.6 | 0.00 | 0.00 | 0.00 | 81 | 1012.4 |
| 20260502043714 | 53 | 176 | 0.9 | 2.6 | 0.00 | 0.00 | 0.00 | 81 | 1012.4 |
| 20260502043616 | 53 | 176 | 0.9 | 2.6 | 0.00 | 0.00 | 0.00 | 82 | 1012.4 |
| 20260502043515 | 53 | 176 | 0.9 | 2.6 | 0.00 | 0.00 | 0.00 | 82 | 1012.4 |
| 20260502043415 | 53 | 176 | 0.9 | 2.6 | 0.00 | 0.00 | 0.00 | 81 | 1012.4 |
| 20260502043316 | 53 | 176 | 0.9 | 2.6 | 0.00 | 0.00 | 0.00 | 81 | 1012.5 |
| 20260502043215 | 53 | 176 | 0.9 | 2.6 | 0.00 | 0.00 | 0.00 | 81 | 1012.5 |
| 20260502043014 | 53 | 173 | 0.9 | 2.6 | 0.00 | 0.00 | 0.00 | 81 | 1012.5 |
| 20260502042916 | 53 | 173 | 0.9 | 2.6 | 0.00 | 0.00 | 0.00 | 81 | 1012.6 |
| 20260502042812 | 53 | 173 | 0.9 | 2.6 | 0.00 | 0.00 | 0.00 | 81 | 1012.6 |
| 20260502042711 | 53 | 173 | 0.9 | 2.6 | 0.00 | 0.00 | 0.00 | 81 | 1012.5 |
| 20260502042612 | 53 | 174 | 0.9 | 2.6 | 0.00 | 0.00 | 0.00 | 81 | 1012.5 |
| 20260502042511 | 53 | 173 | 0.9 | 2.6 | 0.00 | 0.00 | 0.00 | 81 | 1012.5 |
| 20260502042411 | 53 | 173 | 0.9 | 2.6 | 0.00 | 0.00 | 0.00 | 82 | 1012.5 |
| 20260502042310 | 53 | 173 | 0.9 | 2.6 | 0.00 | 0.00 | 0.00 | 82 | 1012.5 |
| 20260502042212 | 53 | 173 | 0.9 | 2.6 | 0.00 | 0.00 | 0.00 | 82 | 1012.5 |
| 20260502042110 | 53 | 173 | 0.9 | 2.6 | 0.00 | 0.00 | 0.00 | 81 | 1012.4 |
| 20260502042011 | 53 | 173 | 0.9 | 2.6 | 0.00 | 0.00 | 0.00 | 82 | 1012.4 |
| 20260502041910 | 53 | 173 | 0.9 | 1.7 | 0.00 | 0.00 | 0.00 | 82 | 1012.5 |
| 20260502041810 | 53 | 173 | 0.9 | 1.7 | 0.00 | 0.00 | 0.00 | 82 | 1012.4 |
| 20260502041711 | 53 | 173 | 0.9 | 1.7 | 0.00 | 0.00 | 0.00 | 82 | 1012.4 |
| 20260502041612 | 53 | 173 | 0.9 | 1.7 | 0.00 | 0.00 | 0.00 | 82 | 1012.5 |
| 20260502041510 | 53 | 173 | 0.9 | 2.6 | 0.00 | 0.00 | 0.00 | 82 | 1012.4 |
| 20260502041412 | 53 | 173 | 0.9 | 2.6 | 0.00 | 0.00 | 0.00 | 82 | 1012.5 |
| 20260502041312 | 53 | 173 | 0.9 | 2.6 | 0.00 | 0.00 | 0.00 | 82 | 1012.6 |
| 20260502041210 | 53 | 173 | 0.9 | 2.6 | 0.00 | 0.00 | 0.00 | 82 | 1012.4 |
| 20260502041111 | 53 | 173 | 0.9 | 2.6 | 0.00 | 0.00 | 0.00 | 82 | 1012.4 |
| 20260502041010 | 53 | 173 | 0.9 | 2.6 | 0.00 | 0.00 | 0.00 | 82 | 1012.5 |
| 20260502040911 | 53 | 173 | 0.9 | 2.6 | 0.00 | 0.00 | 0.00 | 82 | 1012.5 |
| 20260502040810 | 53 | 173 | 0.9 | 2.6 | 0.00 | 0.00 | 0.00 | 82 | 1012.4 |
| 20260502040710 | 53 | 173 | 0.9 | 2.6 | 0.00 | 0.00 | 0.00 | 82 | 1012.4 |
| 20260502040612 | 53 | 173 | 1.7 | 2.6 | 0.00 | 0.00 | 0.00 | 82 | 1012.4 |
| 20260502040510 | 53 | 173 | 0.9 | 2.6 | 0.00 | 0.00 | 0.00 | 82 | 1012.4 |
| 20260502040413 | 53 | 173 | 0.9 | 2.6 | 0.00 | 0.00 | 0.00 | 82 | 1012.4 |
| 20260502040311 | 53 | 173 | 0.9 | 2.6 | 0.00 | 0.00 | 0.00 | 82 | 1012.4 |
| 20260502040203 | 53 | 173 | 0.9 | 2.6 | 0.00 | 0.00 | 0.00 | 82 | 1012.4 |
| 20260502040101 | 53 | 173 | 0.9 | 3.5 | 0.00 | 0.00 | 0.00 | 82 | 1012.4 |
| 20260502040000 | 53 | 173 | 0.9 | 3.5 | 0.00 | 0.00 | 0.00 | 82 | 1012.6 |
| 20260502035902 | 53 | 173 | 0.9 | 4.3 | 0.00 | 0.00 | 0.00 | 82 | 1012.6 |
| 20260502035759 | 53 | 173 | 0.9 | 4.3 | 0.00 | 0.00 | 0.00 | 82 | 1012.5 |
| 20260502035654 | 53 | 173 | 0.9 | 4.3 | 0.00 | 0.00 | 0.00 | 82 | 1012.5 |
| 20260502035554 | 53 | 173 | 0.9 | 4.3 | 0.00 | 0.00 | 0.00 | 82 | 1012.6 |
| 20260502035454 | 53 | 173 | 1.7 | 4.3 | 0.00 | 0.00 | 0.00 | 82 | 1012.6 |
| 20260502035354 | 53 | 173 | 1.7 | 4.3 | 0.00 | 0.00 | 0.00 | 82 | 1012.6 |
| 20260502035252 | 53 | 171 | 1.7 | 4.3 | 0.00 | 0.00 | 0.00 | 82 | 1012.6 |
| 20260502035148 | 53 | 171 | 1.7 | 4.3 | 0.00 | 0.00 | 0.00 | 82 | 1012.7 |
| 20260502035045 | 53 | 171 | 1.7 | 4.3 | 0.00 | 0.00 | 0.00 | 82 | 1012.5 |
| 20260502034945 | 53 | 171 | 1.7 | 4.3 | 0.00 | 0.00 | 0.00 | 82 | 1012.5 |
| 20260502034842 | 53 | 178 | 1.7 | 4.3 | 0.00 | 0.00 | 0.00 | 82 | 1012.5 |
| 20260502034743 | 53 | 178 | 1.7 | 4.3 | 0.00 | 0.00 | 0.00 | 82 | 1012.5 |
| 20260502034637 | 53 | 159 | 1.7 | 5.2 | 0.00 | 0.00 | 0.00 | 82 | 1012.6 |
| 20260502034537 | 53 | 159 | 1.7 | 5.2 | 0.00 | 0.00 | 0.00 | 82 | 1012.5 |
| 20260502034436 | 53 | 159 | 1.7 | 5.2 | 0.00 | 0.00 | 0.00 | 82 | 1012.6 |
| 20260502034335 | 53 | 159 | 1.7 | 5.2 | 0.00 | 0.00 | 0.00 | 82 | 1012.5 |
| 20260502034234 | 53 | 159 | 1.7 | 5.2 | 0.00 | 0.00 | 0.00 | 82 | 1012.5 |
| 20260502034129 | 53 | 159 | 1.7 | 5.2 | 0.00 | 0.00 | 0.00 | 82 | 1012.5 |
| 20260502034026 | 53 | 159 | 1.7 | 5.2 | 0.00 | 0.00 | 0.00 | 82 | 1012.5 |
| 20260502033928 | 53 | 159 | 1.7 | 5.2 | 0.00 | 0.00 | 0.00 | 82 | 1012.6 |
| 20260502033825 | 53 | 149 | 1.7 | 5.2 | 0.00 | 0.00 | 0.00 | 82 | 1012.5 |
| 20260502033725 | 53 | 180 | 1.7 | 5.2 | 0.00 | 0.00 | 0.00 | 82 | 1012.5 |
| 20260502033621 | 53 | 178 | 1.7 | 4.3 | 0.00 | 0.00 | 0.00 | 82 | 1012.6 |
| 20260502033518 | 53 | 181 | 1.7 | 5.2 | 0.00 | 0.00 | 0.00 | 82 | 1012.5 |
| 20260502033420 | 53 | 181 | 1.7 | 5.2 | 0.00 | 0.00 | 0.00 | 82 | 1012.5 |
| 20260502033317 | 53 | 181 | 1.7 | 5.2 | 0.00 | 0.00 | 0.00 | 82 | 1012.6 |
| 20260502033217 | 53 | 178 | 1.7 | 5.2 | 0.00 | 0.00 | 0.00 | 82 | 1012.6 |
| 20260502033106 | 53 | 178 | 1.7 | 5.2 | 0.00 | 0.00 | 0.00 | 82 | 1012.7 |
| 20260502033008 | 53 | 178 | 1.7 | 5.2 | 0.00 | 0.00 | 0.00 | 82 | 1012.7 |
| 20260502032907 | 53 | 178 | 2.6 | 5.2 | 0.00 | 0.00 | 0.00 | 82 | 1012.8 |
| 20260502032806 | 53 | 171 | 2.6 | 5.2 | 0.00 | 0.00 | 0.00 | 82 | 1012.7 |
| 20260502032707 | 53 | 171 | 2.6 | 5.2 | 0.00 | 0.00 | 0.00 | 82 | 1012.6 |
| 20260502032600 | 53 | 178 | 2.6 | 5.2 | 0.00 | 0.00 | 0.00 | 82 | 1012.8 |
| 20260502032500 | 53 | 157 | 2.6 | 4.3 | 0.00 | 0.00 | 0.00 | 82 | 1012.8 |
| 20260502032402 | 53 | 157 | 2.6 | 4.3 | 0.00 | 0.00 | 0.00 | 82 | 1012.8 |
| 20260502032300 | 53 | 157 | 2.6 | 4.3 | 0.00 | 0.00 | 0.00 | 82 | 1012.7 |
| 20260502032202 | 53 | 177 | 2.6 | 4.3 | 0.00 | 0.00 | 0.00 | 82 | 1012.8 |
| 20260502032057 | 53 | 178 | 2.6 | 4.3 | 0.00 | 0.00 | 0.00 | 82 | 1012.7 |
| 20260502031957 | 53 | 178 | 2.6 | 5.2 | 0.00 | 0.00 | 0.00 | 82 | 1012.6 |
| 20260502031857 | 53 | 160 | 2.6 | 5.2 | 0.00 | 0.00 | 0.00 | 82 | 1012.7 |
| 20260502031756 | 53 | 165 | 1.7 | 5.2 | 0.00 | 0.00 | 0.00 | 82 | 1012.8 |
| 20260502031657 | 53 | 190 | 2.6 | 5.2 | 0.00 | 0.00 | 0.00 | 82 | 1012.8 |
| 20260502031557 | 53 | 191 | 2.6 | 5.2 | 0.00 | 0.00 | 0.00 | 82 | 1012.8 |
| 20260502031454 | 53 | 224 | 2.6 | 5.2 | 0.00 | 0.00 | 0.00 | 82 | 1012.8 |
| 20260502031355 | 53 | 151 | 1.7 | 5.2 | 0.00 | 0.00 | 0.00 | 82 | 1012.7 |
| 20260502031256 | 53 | 151 | 2.6 | 5.2 | 0.00 | 0.00 | 0.00 | 81 | 1012.8 |
| 20260502031155 | 53 | 151 | 2.6 | 5.2 | 0.00 | 0.00 | 0.00 | 81 | 1012.8 |
| 20260502031054 | 53 | 151 | 2.6 | 5.2 | 0.00 | 0.00 | 0.00 | 81 | 1012.8 |
| 20260502030956 | 53 | 153 | 2.6 | 4.3 | 0.00 | 0.00 | 0.00 | 81 | 1012.8 |
| 20260502030850 | 53 | 155 | 2.6 | 6.1 | 0.00 | 0.00 | 0.00 | 81 | 1012.9 |
| 20260502030750 | 53 | 155 | 2.6 | 6.1 | 0.00 | 0.00 | 0.00 | 81 | 1012.9 |
| 20260502030648 | 53 | 156 | 2.6 | 6.1 | 0.00 | 0.00 | 0.00 | 81 | 1012.9 |
| 20260502030550 | 53 | 134 | 2.6 | 6.1 | 0.00 | 0.00 | 0.00 | 81 | 1013.0 |
| 20260502030448 | 53 | 192 | 2.6 | 6.1 | 0.00 | 0.00 | 0.00 | 81 | 1012.9 |
| 20260502030348 | 53 | 165 | 2.6 | 6.1 | 0.00 | 0.00 | 0.00 | 81 | 1012.9 |
| 20260502030249 | 53 | 165 | 2.6 | 6.1 | 0.00 | 0.00 | 0.00 | 81 | 1013.0 |
| 20260502030149 | 53 | 164 | 2.6 | 6.1 | 0.00 | 0.00 | 0.00 | 81 | 1012.9 |
| 20260502030048 | 53 | 165 | 2.6 | 6.1 | 0.00 | 0.00 | 0.00 | 81 | 1013.0 |
| 20260502025948 | 53 | 165 | 1.7 | 6.1 | 0.00 | 0.00 | 0.00 | 81 | 1013.0 |
| 20260502025849 | 53 | 156 | 1.7 | 5.2 | 0.00 | 0.00 | 0.00 | 81 | 1013.0 |
| 20260502025748 | 54 | 157 | 1.7 | 5.2 | 0.00 | 0.00 | 0.00 | 81 | 1013.0 |
| 20260502025648 | 54 | 171 | 1.7 | 4.3 | 0.00 | 0.00 | 0.00 | 81 | 1013.0 |
| 20260502025548 | 54 | 172 | 1.7 | 4.3 | 0.00 | 0.00 | 0.00 | 81 | 1013.0 |
| 20260502025450 | 54 | 172 | 2.6 | 7.8 | 0.00 | 0.00 | 0.00 | 81 | 1013.0 |
| 20260502025348 | 54 | 172 | 2.6 | 7.8 | 0.00 | 0.00 | 0.00 | 80 | 1013.1 |
| 20260502025249 | 54 | 172 | 2.6 | 7.8 | 0.00 | 0.00 | 0.00 | 80 | 1013.0 |
| 20260502025149 | 54 | 172 | 2.6 | 7.8 | 0.00 | 0.00 | 0.00 | 80 | 1013.0 |
| 20260502025052 | 54 | 172 | 2.6 | 7.8 | 0.00 | 0.00 | 0.00 | 80 | 1013.0 |
| 20260502024944 | 54 | 173 | 2.6 | 7.8 | 0.00 | 0.00 | 0.00 | 80 | 1013.1 |
| 20260502024846 | 54 | 173 | 2.6 | 7.8 | 0.00 | 0.00 | 0.00 | 80 | 1013.1 |
| 20260502024744 | 54 | 175 | 2.6 | 7.8 | 0.00 | 0.00 | 0.00 | 80 | 1013.1 |
| 20260502024649 | 54 | 175 | 2.6 | 7.8 | 0.00 | 0.00 | 0.00 | 80 | 1013.1 |
| 20260502024542 | 54 | 174 | 1.7 | 7.8 | 0.00 | 0.00 | 0.00 | 80 | 1013.1 |
| 20260502024442 | 54 | 187 | 1.7 | 5.2 | 0.00 | 0.00 | 0.00 | 80 | 1013.1 |
| 20260502024343 | 54 | 162 | 1.7 | 5.2 | 0.00 | 0.00 | 0.00 | 80 | 1013.0 |
| 20260502024242 | 54 | 161 | 1.7 | 5.2 | 0.00 | 0.00 | 0.00 | 80 | 1013.1 |
| 20260502024143 | 54 | 164 | 0.9 | 5.2 | 0.00 | 0.00 | 0.00 | 80 | 1013.0 |
| 20260502024043 | 54 | 208 | 0.9 | 5.2 | 0.00 | 0.00 | 0.00 | 80 | 1013.0 |
| 20260502023942 | 54 | 211 | 0.9 | 3.5 | 0.00 | 0.00 | 0.00 | 79 | 1013.0 |
| 20260502023842 | 54 | 206 | 0.9 | 3.5 | 0.00 | 0.00 | 0.00 | 79 | 1013.0 |
| 20260502023743 | 54 | 206 | 0.9 | 3.5 | 0.00 | 0.00 | 0.00 | 79 | 1013.0 |
| 20260502023644 | 54 | 206 | 0.9 | 3.5 | 0.00 | 0.00 | 0.00 | 79 | 1013.0 |
| 20260502023544 | 54 | 206 | 1.7 | 7.8 | 0.00 | 0.00 | 0.00 | 79 | 1013.0 |
| 20260502023442 | 54 | 207 | 1.7 | 7.8 | 0.00 | 0.00 | 0.00 | 79 | 1012.9 |
| 20260502023344 | 54 | 207 | 1.7 | 7.8 | 0.00 | 0.00 | 0.00 | 79 | 1012.9 |
| 20260502023242 | 54 | 227 | 1.7 | 7.8 | 0.00 | 0.00 | 0.00 | 79 | 1012.8 |
| 20260502023143 | 54 | 259 | 2.6 | 7.8 | 0.00 | 0.00 | 0.00 | 79 | 1012.9 |
| 20260502023035 | 54 | 259 | 2.6 | 7.8 | 0.00 | 0.00 | 0.00 | 79 | 1012.9 |
| 20260502022934 | 54 | 238 | 2.6 | 7.8 | 0.00 | 0.00 | 0.00 | 78 | 1012.9 |
| 20260502022834 | 54 | 231 | 2.6 | 7.8 | 0.00 | 0.00 | 0.00 | 78 | 1012.8 |
| 20260502022735 | 54 | 231 | 2.6 | 7.8 | 0.00 | 0.00 | 0.00 | 78 | 1012.8 |
| 20260502022635 | 54 | 234 | 2.6 | 7.8 | 0.00 | 0.00 | 0.00 | 78 | 1012.8 |
| 20260502022536 | 54 | 178 | 2.6 | 7.8 | 0.00 | 0.00 | 0.00 | 78 | 1012.8 |
| 20260502022434 | 54 | 148 | 2.6 | 7.8 | 0.00 | 0.00 | 0.00 | 78 | 1012.7 |
| 20260502022336 | 54 | 190 | 1.7 | 7.8 | 0.00 | 0.00 | 0.00 | 78 | 1012.7 |
| 20260502022234 | 54 | 198 | 1.7 | 7.0 | 0.00 | 0.00 | 0.00 | 78 | 1012.7 |
| 20260502022134 | 54 | 163 | 1.7 | 7.8 | 0.00 | 0.00 | 0.00 | 78 | 1012.8 |
| 20260502022035 | 54 | 214 | 2.6 | 8.7 | 0.00 | 0.00 | 0.00 | 78 | 1012.8 |
| 20260502021935 | 54 | 214 | 2.6 | 8.7 | 0.00 | 0.00 | 0.00 | 78 | 1012.8 |
| 20260502021835 | 54 | 236 | 2.6 | 8.7 | 0.00 | 0.00 | 0.00 | 78 | 1012.8 |
| 20260502021736 | 54 | 154 | 2.6 | 8.7 | 0.00 | 0.00 | 0.00 | 77 | 1012.7 |
| 20260502021634 | 54 | 158 | 3.5 | 8.7 | 0.00 | 0.00 | 0.00 | 77 | 1012.9 |
| 20260502021535 | 54 | 232 | 2.6 | 8.7 | 0.00 | 0.00 | 0.00 | 77 | 1013.0 |
| 20260502021434 | 54 | 178 | 2.6 | 8.7 | 0.00 | 0.00 | 0.00 | 77 | 1012.8 |
| 20260502021334 | 55 | 188 | 3.5 | 8.7 | 0.00 | 0.00 | 0.00 | 77 | 1012.8 |
| 20260502021234 | 55 | 175 | 3.5 | 8.7 | 0.00 | 0.00 | 0.00 | 77 | 1012.8 |
| 20260502021135 | 54 | 149 | 3.5 | 8.7 | 0.00 | 0.00 | 0.00 | 77 | 1012.8 |
| 20260502021035 | 55 | 142 | 3.5 | 7.8 | 0.00 | 0.00 | 0.00 | 77 | 1012.8 |
| 20260502020934 | 55 | 200 | 2.6 | 7.8 | 0.00 | 0.00 | 0.00 | 77 | 1012.7 |
| 20260502020834 | 55 | 166 | 2.6 | 7.8 | 0.00 | 0.00 | 0.00 | 77 | 1012.7 |
| 20260502020734 | 55 | 184 | 2.6 | 7.8 | 0.00 | 0.00 | 0.00 | 77 | 1012.7 |
| 20260502020636 | 55 | 207 | 2.6 | 7.8 | 0.00 | 0.00 | 0.00 | 77 | 1012.8 |
| 20260502020535 | 55 | 150 | 2.6 | 7.0 | 0.00 | 0.00 | 0.00 | 76 | 1012.7 |
| 20260502020436 | 55 | 173 | 1.7 | 7.0 | 0.00 | 0.00 | 0.00 | 76 | 1012.7 |
| 20260502020335 | 55 | 198 | 1.7 | 7.0 | 0.00 | 0.00 | 0.00 | 76 | 1012.7 |
| 20260502020234 | 55 | 179 | 1.7 | 7.0 | 0.00 | 0.00 | 0.00 | 76 | 1012.6 |
| 20260502020134 | 55 | 193 | 1.7 | 7.0 | 0.00 | 0.00 | 0.00 | 76 | 1012.6 |
| 20260502020035 | 55 | 211 | 1.7 | 7.0 | 0.00 | 0.00 | 0.00 | 76 | 1012.7 |
| 20260502015934 | 55 | 186 | 1.7 | 7.0 | 0.00 | 0.00 | 0.00 | 76 | 1012.6 |
| 20260502015835 | 55 | 198 | 1.7 | 7.0 | 0.00 | 0.00 | 0.00 | 76 | 1012.6 |
| 20260502015730 | 55 | 186 | 1.7 | 6.1 | 0.00 | 0.00 | 0.00 | 76 | 1012.7 |
| 20260502015630 | 55 | 186 | 1.7 | 7.8 | 0.00 | 0.00 | 0.00 | 76 | 1012.5 |
| 20260502015532 | 55 | 246 | 1.7 | 7.8 | 0.00 | 0.00 | 0.00 | 75 | 1012.5 |
| 20260502015430 | 55 | 246 | 2.6 | 7.8 | 0.00 | 0.00 | 0.00 | 75 | 1012.6 |
| 20260502015332 | 55 | 238 | 2.6 | 7.8 | 0.00 | 0.00 | 0.00 | 75 | 1012.5 |
| 20260502015230 | 55 | 150 | 2.6 | 7.8 | 0.00 | 0.00 | 0.00 | 75 | 1012.5 |
| 20260502015130 | 55 | 176 | 2.6 | 7.8 | 0.00 | 0.00 | 0.00 | 75 | 1012.5 |
| 20260502015031 | 55 | 203 | 2.6 | 7.8 | 0.00 | 0.00 | 0.00 | 75 | 1012.5 |
| 20260502014930 | 55 | 159 | 2.6 | 7.8 | 0.00 | 0.00 | 0.00 | 75 | 1012.5 |
| 20260502014831 | 55 | 194 | 2.6 | 7.8 | 0.00 | 0.00 | 0.00 | 75 | 1012.4 |
| 20260502014730 | 55 | 173 | 2.6 | 7.8 | 0.00 | 0.00 | 0.00 | 75 | 1012.4 |
| 20260502014631 | 55 | 157 | 2.6 | 7.8 | 0.00 | 0.00 | 0.00 | 75 | 1012.3 |
| 20260502014530 | 55 | 194 | 2.6 | 7.8 | 0.00 | 0.00 | 0.00 | 75 | 1012.3 |
| 20260502014434 | 55 | 163 | 2.6 | 7.8 | 0.00 | 0.00 | 0.00 | 75 | 1012.3 |
| 20260502014331 | 55 | 154 | 2.6 | 7.8 | 0.00 | 0.00 | 0.00 | 75 | 1012.4 |
| 20260502014231 | 55 | 145 | 2.6 | 7.8 | 0.00 | 0.00 | 0.00 | 75 | 1012.3 |
| 20260502014130 | 55 | 158 | 2.6 | 7.8 | 0.00 | 0.00 | 0.00 | 75 | 1012.2 |
| 20260502014031 | 55 | 157 | 2.6 | 8.7 | 0.00 | 0.00 | 0.00 | 75 | 1012.3 |
| 20260502013931 | 55 | 163 | 3.5 | 8.7 | 0.00 | 0.00 | 0.00 | 75 | 1012.2 |
| 20260502013830 | 55 | 163 | 3.5 | 8.7 | 0.00 | 0.00 | 0.00 | 75 | 1012.2 |
| 20260502013731 | 55 | 184 | 3.5 | 8.7 | 0.00 | 0.00 | 0.00 | 75 | 1012.2 |
| 20260502013631 | 55 | 175 | 3.5 | 8.7 | 0.00 | 0.00 | 0.00 | 75 | 1012.2 |
| 20260502013533 | 55 | 176 | 3.5 | 8.7 | 0.00 | 0.00 | 0.00 | 75 | 1012.2 |
| 20260502013430 | 55 | 163 | 3.5 | 8.7 | 0.00 | 0.00 | 0.00 | 75 | 1012.2 |
| 20260502013332 | 55 | 161 | 3.5 | 8.7 | 0.00 | 0.00 | 0.00 | 75 | 1012.3 |
| 20260502013231 | 55 | 168 | 3.5 | 8.7 | 0.00 | 0.00 | 0.00 | 75 | 1012.2 |
| 20260502013132 | 55 | 173 | 3.5 | 8.7 | 0.00 | 0.00 | 0.00 | 74 | 1012.2 |
| 20260502013031 | 55 | 202 | 2.6 | 8.7 | 0.00 | 0.00 | 0.00 | 75 | 1012.2 |
| 20260502012931 | 55 | 161 | 2.6 | 7.8 | 0.00 | 0.00 | 0.00 | 75 | 1012.1 |
| 20260502012830 | 55 | 186 | 2.6 | 7.8 | 0.00 | 0.00 | 0.00 | 75 | 1012.2 |
| 20260502012730 | 55 | 171 | 2.6 | 7.0 | 0.00 | 0.00 | 0.00 | 75 | 1012.2 |
| 20260502012630 | 55 | 174 | 1.7 | 7.0 | 0.00 | 0.00 | 0.00 | 75 | 1012.2 |
| 20260502012533 | 55 | 168 | 1.7 | 7.0 | 0.00 | 0.00 | 0.00 | 74 | 1012.3 |
| 20260502012427 | 55 | 175 | 1.7 | 5.2 | 0.00 | 0.00 | 0.00 | 75 | 1012.2 |
| 20260502012327 | 55 | 161 | 1.7 | 6.1 | 0.00 | 0.00 | 0.00 | 74 | 1012.2 |
| 20260502012228 | 55 | 162 | 1.7 | 6.1 | 0.00 | 0.00 | 0.00 | 75 | 1012.2 |
| 20260502012126 | 55 | 162 | 1.7 | 6.1 | 0.00 | 0.00 | 0.00 | 74 | 1012.2 |
| 20260502012026 | 55 | 162 | 1.7 | 6.1 | 0.00 | 0.00 | 0.00 | 74 | 1012.2 |
| 20260502011928 | 55 | 246 | 1.7 | 6.1 | 0.00 | 0.00 | 0.00 | 74 | 1012.3 |
| 20260502011826 | 55 | 166 | 1.7 | 6.1 | 0.00 | 0.00 | 0.00 | 74 | 1012.3 |
| 20260502011727 | 55 | 192 | 1.7 | 6.1 | 0.00 | 0.00 | 0.00 | 74 | 1012.3 |
| 20260502011628 | 55 | 192 | 1.7 | 6.1 | 0.00 | 0.00 | 0.00 | 74 | 1012.3 |
| 20260502011527 | 55 | 192 | 1.7 | 6.1 | 0.00 | 0.00 | 0.00 | 74 | 1012.3 |
| 20260502011426 | 55 | 171 | 1.7 | 6.1 | 0.00 | 0.00 | 0.00 | 74 | 1012.4 |
| 20260502011326 | 55 | 173 | 1.7 | 6.1 | 0.00 | 0.00 | 0.00 | 74 | 1012.3 |
| 20260502011226 | 55 | 174 | 1.7 | 7.8 | 0.00 | 0.00 | 0.00 | 74 | 1012.3 |
| 20260502011127 | 55 | 174 | 1.7 | 7.8 | 0.00 | 0.00 | 0.00 | 74 | 1012.3 |
| 20260502011027 | 55 | 174 | 2.6 | 7.8 | 0.00 | 0.00 | 0.00 | 74 | 1012.3 |
| 20260502010926 | 55 | 196 | 2.6 | 7.8 | 0.00 | 0.00 | 0.00 | 74 | 1012.3 |
| 20260502010827 | 55 | 196 | 2.6 | 7.8 | 0.00 | 0.00 | 0.00 | 74 | 1012.2 |
| 20260502010727 | 55 | 196 | 2.6 | 7.8 | 0.00 | 0.00 | 0.00 | 74 | 1012.3 |
| 20260502010626 | 55 | 205 | 2.6 | 7.8 | 0.00 | 0.00 | 0.00 | 74 | 1012.2 |
| 20260502010526 | 55 | 180 | 2.6 | 7.8 | 0.00 | 0.00 | 0.00 | 74 | 1012.3 |
| 20260502010426 | 55 | 179 | 2.6 | 7.8 | 0.00 | 0.00 | 0.00 | 74 | 1012.2 |
| 20260502010327 | 55 | 177 | 2.6 | 7.8 | 0.00 | 0.00 | 0.00 | 74 | 1012.2 |
| 20260502010226 | 55 | 182 | 2.6 | 6.1 | 0.00 | 0.00 | 0.00 | 74 | 1012.2 |
| 20260502010127 | 55 | 177 | 2.6 | 6.1 | 0.00 | 0.00 | 0.00 | 74 | 1012.3 |
| 20260502010026 | 55 | 178 | 2.6 | 6.1 | 0.00 | 0.00 | 0.00 | 74 | 1012.3 |
| 20260502005927 | 55 | 139 | 2.6 | 6.1 | 0.00 | 0.00 | 0.00 | 74 | 1012.2 |
| 20260502005826 | 55 | 153 | 2.6 | 6.1 | 0.00 | 0.00 | 0.00 | 74 | 1012.3 |
| 20260502005727 | 55 | 205 | 2.6 | 6.1 | 0.00 | 0.00 | 0.00 | 74 | 1012.3 |
| 20260502005627 | 55 | 177 | 2.6 | 6.1 | 0.00 | 0.00 | 0.00 | 74 | 1012.3 |
| 20260502005526 | 55 | 162 | 2.6 | 6.1 | 0.00 | 0.00 | 0.00 | 74 | 1012.3 |
| 20260502005428 | 55 | 170 | 2.6 | 6.1 | 0.00 | 0.00 | 0.00 | 74 | 1012.2 |
| 20260502005326 | 55 | 188 | 2.6 | 6.1 | 0.00 | 0.00 | 0.00 | 73 | 1012.2 |
| 20260502005228 | 55 | 153 | 1.7 | 6.1 | 0.00 | 0.00 | 0.00 | 74 | 1012.1 |
| 20260502005122 | 55 | 175 | 2.6 | 6.1 | 0.00 | 0.00 | 0.00 | 73 | 1012.2 |
| 20260502005020 | 55 | 157 | 2.6 | 7.8 | 0.00 | 0.00 | 0.00 | 73 | 1012.1 |
| 20260502004918 | 55 | 156 | 2.6 | 7.8 | 0.00 | 0.00 | 0.00 | 73 | 1012.1 |
| 20260502004818 | 55 | 172 | 2.6 | 7.8 | 0.00 | 0.00 | 0.00 | 73 | 1012.1 |
| 20260502004718 | 55 | 173 | 2.6 | 7.8 | 0.00 | 0.00 | 0.00 | 73 | 1012.0 |
| 20260502004616 | 55 | 180 | 1.7 | 7.8 | 0.00 | 0.00 | 0.00 | 73 | 1012.0 |
| 20260502004516 | 55 | 191 | 1.7 | 7.8 | 0.00 | 0.00 | 0.00 | 73 | 1012.1 |
| 20260502004414 | 55 | 191 | 1.7 | 7.8 | 0.00 | 0.00 | 0.00 | 73 | 1012.1 |
| 20260502004314 | 55 | 186 | 1.7 | 7.8 | 0.00 | 0.00 | 0.00 | 73 | 1012.0 |
| 20260502004209 | 55 | 194 | 1.7 | 7.8 | 0.00 | 0.00 | 0.00 | 73 | 1012.1 |
| 20260502004059 | 55 | 178 | 1.7 | 6.1 | 0.00 | 0.00 | 0.00 | 73 | 1012.0 |
| 20260502003958 | 56 | 184 | 0.9 | 6.1 | 0.00 | 0.00 | 0.00 | 73 | 1012.0 |
| 20260502003900 | 56 | 183 | 0.9 | 6.1 | 0.00 | 0.00 | 0.00 | 72 | 1012.0 |
| 20260502003758 | 56 | 184 | 0.9 | 6.1 | 0.00 | 0.00 | 0.00 | 73 | 1012.0 |
| 20260502003658 | 56 | 184 | 0.9 | 6.1 | 0.00 | 0.00 | 0.00 | 72 | 1012.0 |
| 20260502003554 | 56 | 184 | 0.9 | 6.1 | 0.00 | 0.00 | 0.00 | 72 | 1011.8 |
| 20260502003453 | 56 | 180 | 0.9 | 5.2 | 0.00 | 0.00 | 0.00 | 72 | 1011.7 |
| 20260502003352 | 56 | 180 | 1.7 | 5.2 | 0.00 | 0.00 | 0.00 | 72 | 1011.8 |
| 20260502003253 | 56 | 222 | 1.7 | 5.2 | 0.00 | 0.00 | 0.00 | 72 | 1011.7 |
| 20260502003153 | 56 | 211 | 1.7 | 5.2 | 0.00 | 0.00 | 0.00 | 72 | 1011.7 |
| 20260502003053 | 56 | 172 | 1.7 | 5.2 | 0.00 | 0.00 | 0.00 | 72 | 1011.7 |
| 20260502002954 | 56 | 172 | 1.7 | 5.2 | 0.00 | 0.00 | 0.00 | 72 | 1011.6 |
| 20260502002850 | 56 | 172 | 1.7 | 5.2 | 0.00 | 0.00 | 0.00 | 72 | 1011.7 |
| 20260502002749 | 56 | 173 | 2.6 | 5.2 | 0.00 | 0.00 | 0.00 | 72 | 1011.7 |
| 20260502002647 | 56 | 171 | 2.6 | 5.2 | 0.00 | 0.00 | 0.00 | 72 | 1011.7 |
| 20260502002537 | 56 | 169 | 1.7 | 5.2 | 0.00 | 0.00 | 0.00 | 72 | 1011.7 |
| 20260502002437 | 56 | 158 | 1.7 | 5.2 | 0.00 | 0.00 | 0.00 | 71 | 1011.6 |
| 20260502002338 | 56 | 167 | 1.7 | 5.2 | 0.00 | 0.00 | 0.00 | 71 | 1011.6 |
| 20260502002236 | 56 | 182 | 1.7 | 5.2 | 0.00 | 0.00 | 0.00 | 72 | 1011.6 |
| 20260502002136 | 56 | 162 | 1.7 | 5.2 | 0.00 | 0.00 | 0.00 | 71 | 1011.5 |
| 20260502002037 | 56 | 178 | 1.7 | 5.2 | 0.00 | 0.00 | 0.00 | 71 | 1011.5 |
| 20260502001934 | 56 | 165 | 1.7 | 5.2 | 0.00 | 0.00 | 0.00 | 71 | 1011.5 |
| 20260502001834 | 56 | 193 | 1.7 | 5.2 | 0.00 | 0.00 | 0.00 | 71 | 1011.5 |
| 20260502001733 | 56 | 219 | 1.7 | 5.2 | 0.00 | 0.00 | 0.00 | 71 | 1011.4 |
| 20260502001631 | 56 | 185 | 1.7 | 7.0 | 0.00 | 0.00 | 0.00 | 71 | 1011.4 |
| 20260502001524 | 56 | 188 | 1.7 | 7.0 | 0.00 | 0.00 | 0.00 | 71 | 1011.4 |
| 20260502001424 | 56 | 149 | 1.7 | 7.0 | 0.00 | 0.00 | 0.00 | 71 | 1011.3 |
| 20260502001324 | 56 | 149 | 1.7 | 7.0 | 0.00 | 0.00 | 0.00 | 71 | 1011.3 |
| 20260502001224 | 56 | 153 | 1.7 | 7.0 | 0.00 | 0.00 | 0.00 | 71 | 1011.3 |
| 20260502001124 | 56 | 164 | 2.6 | 7.0 | 0.00 | 0.00 | 0.00 | 71 | 1011.4 |
| 20260502001018 | 56 | 161 | 2.6 | 7.0 | 0.00 | 0.00 | 0.00 | 71 | 1011.3 |
| 20260502000918 | 56 | 153 | 1.7 | 7.0 | 0.00 | 0.00 | 0.00 | 71 | 1011.3 |
| 20260502000820 | 56 | 152 | 2.6 | 7.0 | 0.00 | 0.00 | 0.00 | 71 | 1011.2 |
| 20260502000718 | 56 | 165 | 1.7 | 7.0 | 0.00 | 0.00 | 0.00 | 71 | 1011.3 |
| 20260502000619 | 56 | 183 | 1.7 | 7.8 | 0.00 | 0.00 | 0.00 | 71 | 1011.3 |
| 20260502000519 | 57 | 184 | 2.6 | 7.8 | 0.00 | 0.00 | 0.00 | 70 | 1011.4 |
| 20260502000419 | 57 | 202 | 2.6 | 7.8 | 0.00 | 0.00 | 0.00 | 71 | 1011.3 |
| 20260502000319 | 57 | 172 | 2.6 | 7.8 | 0.00 | 0.00 | 0.00 | 71 | 1011.3 |
| 20260502000218 | 57 | 161 | 2.6 | 7.8 | 0.00 | 0.00 | 0.00 | 71 | 1011.3 |
| 20260502000114 | 57 | 161 | 2.6 | 7.8 | 0.00 | 0.00 | 0.00 | 71 | 1011.4 |
| 20260502000015 | 57 | 187 | 2.6 | 7.8 | 0.00 | 0.00 | 0.00 | 70 | 1011.3 |
| 20260501235916 | 57 | 174 | 2.6 | 7.8 | 0.00 | 0.00 | 0.00 | 70 | 1011.3 |
| 20260501235814 | 57 | 165 | 2.6 | 7.8 | 0.00 | 0.00 | 0.00 | 70 | 1011.4 |
| 20260501235715 | 57 | 158 | 2.6 | 7.8 | 0.00 | 0.00 | 0.00 | 70 | 1011.4 |
| 20260501235614 | 57 | 188 | 2.6 | 6.1 | 0.00 | 0.00 | 0.00 | 70 | 1011.3 |
| 20260501235515 | 57 | 184 | 2.6 | 6.1 | 0.00 | 0.00 | 0.00 | 70 | 1011.4 |
| 20260501235412 | 57 | 163 | 2.6 | 6.1 | 0.00 | 0.00 | 0.00 | 70 | 1011.3 |
| 20260501235307 | 57 | 161 | 2.6 | 5.2 | 0.00 | 0.00 | 0.00 | 70 | 1011.3 |
| 20260501235207 | 57 | 171 | 2.6 | 6.1 | 0.00 | 0.00 | 0.00 | 70 | 1011.3 |
| 20260501235107 | 57 | 178 | 2.6 | 6.1 | 0.00 | 0.00 | 0.00 | 71 | 1011.3 |
| 20260501235006 | 57 | 157 | 2.6 | 6.1 | 0.00 | 0.00 | 0.00 | 70 | 1011.3 |
| 20260501234906 | 57 | 161 | 2.6 | 6.1 | 0.00 | 0.00 | 0.00 | 70 | 1011.3 |
| 20260501234802 | 57 | 161 | 2.6 | 6.1 | 0.00 | 0.00 | 0.00 | 70 | 1011.3 |
| 20260501234701 | 57 | 185 | 2.6 | 6.1 | 0.00 | 0.00 | 0.00 | 70 | 1011.2 |
| 20260501234602 | 57 | 182 | 2.6 | 6.1 | 0.00 | 0.00 | 0.00 | 70 | 1011.1 |
| 20260501234502 | 57 | 171 | 2.6 | 6.1 | 0.00 | 0.00 | 0.00 | 69 | 1011.1 |
| 20260501234402 | 58 | 168 | 1.7 | 6.1 | 0.00 | 0.00 | 0.00 | 69 | 1011.2 |
| 20260501234303 | 58 | 188 | 1.7 | 6.1 | 0.00 | 0.00 | 0.00 | 70 | 1011.0 |
| 20260501234202 | 58 | 154 | 1.7 | 5.2 | 0.00 | 0.00 | 0.00 | 70 | 1011.1 |
| 20260501234102 | 58 | 157 | 1.7 | 5.2 | 0.00 | 0.00 | 0.00 | 70 | 1011.0 |
| 20260501234002 | 58 | 157 | 1.7 | 5.2 | 0.00 | 0.00 | 0.00 | 69 | 1011.1 |
| 20260501233903 | 58 | 148 | 1.7 | 5.2 | 0.00 | 0.00 | 0.00 | 69 | 1011.0 |
| 20260501233801 | 58 | 190 | 1.7 | 5.2 | 0.00 | 0.00 | 0.00 | 69 | 1011.0 |
| 20260501233701 | 58 | 167 | 1.7 | 5.2 | 0.00 | 0.00 | 0.00 | 69 | 1011.1 |
| 20260501233600 | 58 | 171 | 2.6 | 5.2 | 0.00 | 0.00 | 0.00 | 69 | 1011.0 |
| 20260501233501 | 58 | 171 | 2.6 | 5.2 | 0.00 | 0.00 | 0.00 | 69 | 1011.1 |
| 20260501233401 | 58 | 171 | 2.6 | 5.2 | 0.00 | 0.00 | 0.00 | 69 | 1011.0 |
| 20260501233300 | 58 | 171 | 2.6 | 5.2 | 0.00 | 0.00 | 0.00 | 68 | 1010.9 |
| 20260501233200 | 58 | 171 | 2.6 | 5.2 | 0.00 | 0.00 | 0.00 | 68 | 1011.0 |
| 20260501233058 | 58 | 171 | 2.6 | 7.0 | 0.00 | 0.00 | 0.00 | 68 | 1011.0 |
| 20260501232958 | 58 | 167 | 2.6 | 7.0 | 0.00 | 0.00 | 0.00 | 68 | 1011.0 |
| 20260501232858 | 58 | 159 | 2.6 | 7.0 | 0.00 | 0.00 | 0.00 | 68 | 1011.1 |
| 20260501232758 | 58 | 181 | 2.6 | 7.0 | 0.00 | 0.00 | 0.00 | 67 | 1011.0 |
| 20260501232656 | 58 | 181 | 2.6 | 7.0 | 0.00 | 0.00 | 0.00 | 67 | 1011.0 |
| 20260501232556 | 59 | 166 | 2.6 | 7.0 | 0.00 | 0.00 | 0.00 | 67 | 1011.0 |
| 20260501232456 | 59 | 166 | 2.6 | 7.0 | 0.00 | 0.00 | 0.00 | 67 | 1011.0 |
| 20260501232356 | 59 | 163 | 2.6 | 7.0 | 0.00 | 0.00 | 0.00 | 67 | 1011.0 |
| 20260501232256 | 59 | 163 | 2.6 | 7.0 | 0.00 | 0.00 | 0.00 | 67 | 1011.0 |
| 20260501232154 | 59 | 159 | 2.6 | 7.0 | 0.00 | 0.00 | 0.00 | 67 | 1011.0 |
| 20260501232053 | 59 | 177 | 2.6 | 7.8 | 0.00 | 0.00 | 0.00 | 67 | 1011.1 |
| 20260501231950 | 59 | 178 | 2.6 | 7.8 | 0.00 | 0.00 | 0.00 | 67 | 1011.0 |
| 20260501231851 | 59 | 163 | 2.6 | 7.8 | 0.00 | 0.00 | 0.00 | 67 | 1011.2 |
| 20260501231748 | 59 | 163 | 2.6 | 7.8 | 0.00 | 0.00 | 0.00 | 66 | 1011.1 |
| 20260501231648 | 59 | 162 | 2.6 | 7.8 | 0.00 | 0.00 | 0.00 | 66 | 1011.1 |
| 20260501231548 | 59 | 164 | 3.5 | 7.8 | 0.00 | 0.00 | 0.00 | 66 | 1011.1 |
| 20260501231449 | 59 | 160 | 3.5 | 7.8 | 0.00 | 0.00 | 0.00 | 66 | 1011.2 |
| 20260501231347 | 59 | 155 | 3.5 | 7.8 | 0.00 | 0.00 | 0.00 | 66 | 1011.2 |
| 20260501231246 | 59 | 134 | 3.5 | 7.8 | 0.00 | 0.00 | 0.00 | 66 | 1011.2 |
| 20260501231147 | 60 | 176 | 3.5 | 7.8 | 0.00 | 0.00 | 0.00 | 65 | 1011.2 |
| 20260501231046 | 60 | 139 | 3.5 | 7.8 | 0.00 | 0.00 | 0.00 | 66 | 1011.2 |
| 20260501230946 | 60 | 163 | 3.5 | 7.8 | 0.00 | 0.00 | 0.00 | 66 | 1011.3 |
| 20260501230838 | 60 | 163 | 3.5 | 7.8 | 0.00 | 0.00 | 0.00 | 65 | 1011.1 |
| 20260501230738 | 60 | 169 | 3.5 | 7.8 | 0.00 | 0.00 | 0.00 | 65 | 1011.1 |
| 20260501230639 | 60 | 173 | 3.5 | 7.8 | 0.00 | 0.00 | 0.00 | 65 | 1011.2 |
| 20260501230538 | 60 | 155 | 3.5 | 6.1 | 0.00 | 0.00 | 0.00 | 65 | 1011.1 |
| 20260501230438 | 60 | 163 | 3.5 | 6.1 | 0.00 | 0.00 | 0.00 | 64 | 1011.1 |
| 20260501230335 | 60 | 157 | 3.5 | 7.0 | 0.00 | 0.00 | 0.00 | 65 | 1011.2 |
| 20260501230231 | 60 | 162 | 3.5 | 7.0 | 0.00 | 0.00 | 0.00 | 65 | 1011.2 |
| 20260501230132 | 60 | 153 | 3.5 | 7.8 | 0.00 | 0.00 | 0.00 | 65 | 1011.1 |
| 20260501230032 | 60 | 194 | 3.5 | 7.8 | 0.00 | 0.00 | 0.00 | 64 | 1011.2 |
| 20260501225930 | 60 | 161 | 3.5 | 7.8 | 0.00 | 0.00 | 0.00 | 64 | 1011.2 |
| 20260501225824 | 60 | 190 | 3.5 | 7.8 | 0.00 | 0.00 | 0.00 | 64 | 1011.2 |
| 20260501225725 | 60 | 161 | 3.5 | 7.8 | 0.00 | 0.00 | 0.00 | 64 | 1011.3 |
| 20260501225622 | 60 | 174 | 2.6 | 7.8 | 0.00 | 0.00 | 0.00 | 64 | 1011.3 |
| 20260501225523 | 60 | 175 | 3.5 | 7.8 | 0.00 | 0.00 | 0.00 | 63 | 1011.3 |
| 20260501225420 | 60 | 186 | 2.6 | 7.8 | 0.00 | 0.00 | 0.00 | 63 | 1011.3 |
| 20260501225321 | 60 | 245 | 2.6 | 7.8 | 0.00 | 0.00 | 0.00 | 63 | 1011.3 |
| 20260501225221 | 60 | 166 | 2.6 | 7.8 | 0.00 | 0.00 | 0.00 | 63 | 1011.3 |
| 20260501225120 | 60 | 186 | 2.6 | 7.0 | 0.00 | 0.00 | 0.00 | 64 | 1011.3 |
| 20260501225021 | 60 | 178 | 2.6 | 7.0 | 0.00 | 0.00 | 0.00 | 64 | 1011.3 |
| 20260501224921 | 60 | 178 | 2.6 | 7.0 | 0.00 | 0.00 | 0.00 | 63 | 1011.4 |
| 20260501224820 | 60 | 99 | 2.6 | 7.0 | 0.00 | 0.00 | 0.00 | 63 | 1011.3 |
| 20260501224720 | 60 | 200 | 2.6 | 7.0 | 0.00 | 0.00 | 0.00 | 63 | 1011.4 |
| 20260501224620 | 60 | 163 | 3.5 | 7.0 | 0.00 | 0.00 | 0.00 | 62 | 1011.4 |
| 20260501224519 | 60 | 149 | 3.5 | 7.0 | 0.00 | 0.00 | 0.00 | 63 | 1011.5 |
| 20260501224417 | 60 | 173 | 3.5 | 10.4 | 0.00 | 0.00 | 0.00 | 62 | 1011.4 |
| 20260501224317 | 60 | 170 | 3.5 | 10.4 | 0.00 | 0.00 | 0.00 | 62 | 1011.3 |
| 20260501224217 | 60 | 171 | 3.5 | 10.4 | 0.00 | 0.00 | 0.00 | 62 | 1011.4 |
| 20260501224116 | 60 | 163 | 3.5 | 10.4 | 0.00 | 0.00 | 0.00 | 62 | 1011.4 |
| 20260501224015 | 60 | 188 | 3.5 | 10.4 | 0.00 | 0.00 | 0.00 | 62 | 1011.4 |
| 20260501223917 | 60 | 148 | 3.5 | 10.4 | 0.00 | 0.00 | 0.00 | 62 | 1011.4 |
| 20260501223817 | 60 | 159 | 3.5 | 10.4 | 0.00 | 0.00 | 0.00 | 62 | 1011.3 |
| 20260501223715 | 61 | 130 | 3.5 | 10.4 | 0.00 | 0.00 | 0.00 | 62 | 1011.4 |
| 20260501223609 | 61 | 158 | 3.5 | 10.4 | 0.00 | 0.00 | 0.00 | 61 | 1011.4 |
| 20260501223508 | 61 | 167 | 2.6 | 10.4 | 0.00 | 0.00 | 0.00 | 62 | 1011.4 |
| 20260501223409 | 61 | 153 | 2.6 | 7.0 | 0.00 | 0.00 | 0.00 | 61 | 1011.3 |
| 20260501223308 | 61 | 128 | 2.6 | 7.0 | 0.00 | 0.00 | 0.00 | 62 | 1011.3 |
| 20260501223209 | 61 | 139 | 2.6 | 5.2 | 0.00 | 0.00 | 0.00 | 62 | 1011.3 |
| 20260501223103 | 61 | 174 | 2.6 | 5.2 | 0.00 | 0.00 | 0.00 | 62 | 1011.3 |
| 20260501223002 | 61 | 168 | 2.6 | 5.2 | 0.00 | 0.00 | 0.00 | 61 | 1011.3 |
| 20260501222902 | 61 | 185 | 2.6 | 5.2 | 0.00 | 0.00 | 0.00 | 61 | 1011.2 |
| 20260501222803 | 61 | 196 | 2.6 | 5.2 | 0.00 | 0.00 | 0.00 | 62 | 1011.3 |
| 20260501222703 | 61 | 151 | 2.6 | 6.1 | 0.00 | 0.00 | 0.00 | 62 | 1011.3 |
| 20260501222601 | 61 | 168 | 2.6 | 6.1 | 0.00 | 0.00 | 0.00 | 61 | 1011.2 |
| 20260501222502 | 61 | 166 | 2.6 | 6.1 | 0.00 | 0.00 | 0.00 | 61 | 1011.2 |
| 20260501222403 | 61 | 175 | 2.6 | 6.1 | 0.00 | 0.00 | 0.00 | 61 | 1011.2 |
| 20260501222305 | 61 | 142 | 2.6 | 6.1 | 0.00 | 0.00 | 0.00 | 61 | 1011.3 |
| 20260501222102 | 61 | 163 | 3.5 | 7.0 | 0.00 | 0.00 | 0.00 | 61 | 1011.3 |
| 20260501222002 | 61 | 163 | 3.5 | 7.8 | 0.00 | 0.00 | 0.00 | 62 | 1011.2 |
| 20260501221900 | 61 | 163 | 3.5 | 8.7 | 0.00 | 0.00 | 0.00 | 61 | 1011.3 |
| 20260501221800 | 61 | 170 | 3.5 | 8.7 | 0.00 | 0.00 | 0.00 | 61 | 1011.3 |
| 20260501221701 | 61 | 167 | 3.5 | 8.7 | 0.00 | 0.00 | 0.00 | 61 | 1011.3 |
| 20260501221600 | 61 | 151 | 3.5 | 8.7 | 0.00 | 0.00 | 0.00 | 61 | 1011.2 |
| 20260501221500 | 61 | 159 | 3.5 | 8.7 | 0.00 | 0.00 | 0.00 | 61 | 1011.3 |
| 20260501221357 | 61 | 171 | 3.5 | 8.7 | 0.00 | 0.00 | 0.00 | 61 | 1011.3 |
| 20260501221255 | 61 | 156 | 3.5 | 8.7 | 0.00 | 0.00 | 0.00 | 61 | 1011.3 |
| 20260501221155 | 61 | 200 | 3.5 | 8.7 | 0.00 | 0.00 | 0.00 | 60 | 1011.3 |
| 20260501221054 | 61 | 134 | 3.5 | 8.7 | 0.00 | 0.00 | 0.00 | 60 | 1011.3 |
| 20260501220955 | 61 | 148 | 2.6 | 8.7 | 0.00 | 0.00 | 0.00 | 61 | 1011.3 |
| 20260501220846 | 62 | 142 | 2.6 | 7.8 | 0.00 | 0.00 | 0.00 | 61 | 1011.3 |
| 20260501220746 | 62 | 95 | 2.6 | 7.8 | 0.00 | 0.00 | 0.00 | 63 | 1011.3 |
| 20260501220648 | 62 | 146 | 2.6 | 7.0 | 0.00 | 0.00 | 0.00 | 62 | 1011.3 |
| 20260501220546 | 62 | 144 | 2.6 | 7.0 | 0.00 | 0.00 | 0.00 | 62 | 1011.3 |
| 20260501220445 | 62 | 144 | 2.6 | 7.0 | 0.00 | 0.00 | 0.00 | 62 | 1011.4 |
| 20260501220339 | 62 | 155 | 2.6 | 7.0 | 0.00 | 0.00 | 0.00 | 61 | 1011.3 |
| 20260501220237 | 62 | 182 | 3.5 | 7.8 | 0.00 | 0.00 | 0.00 | 61 | 1011.3 |
| 20260501220139 | 62 | 150 | 3.5 | 7.8 | 0.00 | 0.00 | 0.00 | 62 | 1011.4 |
| 20260501220038 | 62 | 147 | 3.5 | 7.8 | 0.00 | 0.00 | 0.00 | 61 | 1011.4 |
| 20260501215938 | 62 | 150 | 3.5 | 7.8 | 0.00 | 0.00 | 0.00 | 62 | 1011.4 |
| 20260501215836 | 62 | 148 | 4.3 | 7.8 | 0.00 | 0.00 | 0.00 | 60 | 1011.4 |
| 20260501215737 | 62 | 139 | 4.3 | 7.8 | 0.00 | 0.00 | 0.00 | 61 | 1011.4 |
| 20260501215636 | 62 | 138 | 4.3 | 7.8 | 0.00 | 0.00 | 0.00 | 60 | 1011.4 |
| 20260501215536 | 62 | 138 | 4.3 | 7.8 | 0.00 | 0.00 | 0.00 | 60 | 1011.4 |
| 20260501215433 | 62 | 138 | 4.3 | 7.8 | 0.00 | 0.00 | 0.00 | 59 | 1011.4 |
| 20260501215326 | 62 | 113 | 4.3 | 7.8 | 0.00 | 0.00 | 0.00 | 59 | 1011.4 |
| 20260501215226 | 62 | 126 | 3.5 | 7.8 | 0.00 | 0.00 | 0.00 | 59 | 1011.4 |
| 20260501215126 | 62 | 123 | 3.5 | 7.8 | 0.00 | 0.00 | 0.00 | 60 | 1011.4 |
| 20260501215025 | 62 | 162 | 3.5 | 7.8 | 0.00 | 0.00 | 0.00 | 59 | 1011.4 |
| 20260501214922 | 62 | 119 | 3.5 | 7.8 | 0.00 | 0.00 | 0.00 | 58 | 1011.4 |
| 20260501214819 | 62 | 136 | 3.5 | 7.8 | 0.00 | 0.00 | 0.00 | 58 | 1011.5 |
| 20260501214721 | 62 | 150 | 2.6 | 6.1 | 0.00 | 0.00 | 0.00 | 58 | 1011.5 |
| 20260501214618 | 62 | 131 | 2.6 | 6.1 | 0.00 | 0.00 | 0.00 | 59 | 1011.4 |
| 20260501214517 | 63 | 120 | 2.6 | 6.1 | 0.00 | 0.00 | 0.00 | 58 | 1011.5 |
| 20260501214416 | 63 | 154 | 2.6 | 8.7 | 0.00 | 0.00 | 0.00 | 58 | 1011.6 |
| 20260501214311 | 63 | 201 | 2.6 | 8.7 | 0.00 | 0.00 | 0.00 | 57 | 1011.6 |
| 20260501214211 | 63 | 182 | 2.6 | 8.7 | 0.00 | 0.00 | 0.00 | 58 | 1011.5 |
| 20260501214111 | 63 | 167 | 2.6 | 8.7 | 0.00 | 0.00 | 0.00 | 58 | 1011.5 |
| 20260501214009 | 63 | 139 | 2.6 | 8.7 | 0.00 | 0.00 | 0.00 | 57 | 1011.5 |
| 20260501213911 | 63 | 151 | 2.6 | 8.7 | 0.00 | 0.00 | 0.00 | 60 | 1011.4 |
| 20260501213802 | 63 | 171 | 3.5 | 8.7 | 0.00 | 0.00 | 0.00 | 59 | 1011.4 |
| 20260501213703 | 63 | 171 | 3.5 | 8.7 | 0.00 | 0.00 | 0.00 | 58 | 1011.4 |
| 20260501213602 | 63 | 175 | 2.6 | 8.7 | 0.00 | 0.00 | 0.00 | 57 | 1011.5 |
| 20260501213504 | 63 | 156 | 2.6 | 8.7 | 0.00 | 0.00 | 0.00 | 58 | 1011.5 |
| 20260501213401 | 63 | 141 | 2.6 | 7.0 | 0.00 | 0.00 | 0.00 | 58 | 1011.5 |
| 20260501213254 | 63 | 148 | 2.6 | 7.0 | 0.00 | 0.00 | 0.00 | 58 | 1011.5 |
| 20260501213207 | 63 | 138 | 1.7 | 7.0 | 0.00 | 0.00 | 0.00 | 57 | 1011.5 |
| 20260501213053 | 63 | 136 | 1.7 | 7.0 | 0.00 | 0.00 | 0.00 | 57 | 1011.4 |
| 20260501212954 | 63 | 164 | 1.7 | 7.0 | 0.00 | 0.00 | 0.00 | 56 | 1011.5 |
| 20260501212855 | 63 | 143 | 1.7 | 7.0 | 0.00 | 0.00 | 0.00 | 58 | 1011.5 |
| 20260501212751 | 63 | 141 | 2.6 | 7.0 | 0.00 | 0.00 | 0.00 | 58 | 1011.4 |
| 20260501212648 | 63 | 157 | 2.6 | 7.0 | 0.00 | 0.00 | 0.00 | 59 | 1011.5 |
| 20260501212549 | 62 | 154 | 2.6 | 7.0 | 0.00 | 0.00 | 0.00 | 59 | 1011.5 |
| 20260501212448 | 62 | 151 | 2.6 | 7.0 | 0.00 | 0.00 | 0.00 | 59 | 1011.5 |
| 20260501212349 | 62 | 151 | 2.6 | 7.0 | 0.00 | 0.00 | 0.00 | 58 | 1011.5 |
| 20260501212241 | 62 | 150 | 2.6 | 7.0 | 0.00 | 0.00 | 0.00 | 58 | 1011.5 |
| 20260501212138 | 62 | 162 | 3.5 | 7.0 | 0.00 | 0.00 | 0.00 | 57 | 1011.5 |
| 20260501212039 | 62 | 146 | 3.5 | 8.7 | 0.00 | 0.00 | 0.00 | 58 | 1011.6 |
| 20260501211938 | 62 | 146 | 3.5 | 8.7 | 0.00 | 0.00 | 0.00 | 57 | 1011.5 |
| 20260501211839 | 62 | 151 | 3.5 | 8.7 | 0.00 | 0.00 | 0.00 | 57 | 1011.6 |
| 20260501211735 | 62 | 142 | 3.5 | 8.7 | 0.00 | 0.00 | 0.00 | 58 | 1011.5 |
| 20260501211633 | 62 | 160 | 3.5 | 8.7 | 0.00 | 0.00 | 0.00 | 57 | 1011.5 |
| 20260501211532 | 62 | 161 | 3.5 | 8.7 | 0.00 | 0.00 | 0.00 | 56 | 1011.5 |
| 20260501211432 | 62 | 223 | 3.5 | 8.7 | 0.00 | 0.00 | 0.00 | 57 | 1011.6 |
| 20260501211332 | 62 | 165 | 3.5 | 8.7 | 0.00 | 0.00 | 0.00 | 57 | 1011.7 |
| 20260501211227 | 62 | 190 | 3.5 | 8.7 | 0.00 | 0.00 | 0.00 | 57 | 1011.6 |
| 20260501211125 | 62 | 168 | 3.5 | 8.7 | 0.00 | 0.00 | 0.00 | 56 | 1011.6 |
| 20260501211027 | 62 | 134 | 3.5 | 7.0 | 0.00 | 0.00 | 0.00 | 57 | 1011.7 |
| 20260501210926 | 62 | 167 | 3.5 | 8.7 | 0.00 | 0.00 | 0.00 | 56 | 1011.6 |
| 20260501210826 | 62 | 142 | 3.5 | 8.7 | 0.00 | 0.00 | 0.00 | 57 | 1011.5 |
| 20260501210720 | 62 | 144 | 3.5 | 8.7 | 0.00 | 0.00 | 0.00 | 57 | 1011.6 |
| 20260501210621 | 62 | 180 | 3.5 | 8.7 | 0.00 | 0.00 | 0.00 | 57 | 1011.6 |
| 20260501210520 | 62 | 138 | 4.3 | 8.7 | 0.00 | 0.00 | 0.00 | 57 | 1011.6 |
| 20260501210419 | 62 | 128 | 4.3 | 8.7 | 0.00 | 0.00 | 0.00 | 56 | 1011.7 |
| 20260501210317 | 62 | 168 | 4.3 | 8.7 | 0.00 | 0.00 | 0.00 | 56 | 1011.7 |
| 20260501210212 | 62 | 138 | 3.5 | 8.7 | 0.00 | 0.00 | 0.00 | 57 | 1011.6 |
| 20260501210111 | 62 | 166 | 3.5 | 8.7 | 0.00 | 0.00 | 0.00 | 57 | 1011.6 |
| 20260501210012 | 63 | 134 | 3.5 | 8.7 | 0.00 | 0.00 | 0.00 | 55 | 1011.6 |
| 20260501205913 | 63 | 154 | 3.5 | 7.0 | 0.00 | 0.00 | 0.00 | 54 | 1011.6 |
| 20260501205811 | 63 | 125 | 3.5 | 7.0 | 0.00 | 0.00 | 0.00 | 55 | 1011.6 |
| 20260501205704 | 63 | 140 | 3.5 | 7.0 | 0.00 | 0.00 | 0.00 | 56 | 1011.6 |
| 20260501205605 | 63 | 135 | 3.5 | 7.0 | 0.00 | 0.00 | 0.00 | 55 | 1011.6 |
| 20260501205505 | 63 | 133 | 3.5 | 7.0 | 0.00 | 0.00 | 0.00 | 55 | 1011.6 |
| 20260501205405 | 63 | 153 | 3.5 | 7.0 | 0.00 | 0.00 | 0.00 | 56 | 1011.6 |
| 20260501205306 | 63 | 141 | 3.5 | 7.0 | 0.00 | 0.00 | 0.00 | 55 | 1011.6 |
| 20260501205157 | 63 | 138 | 3.5 | 7.0 | 0.00 | 0.00 | 0.00 | 54 | 1011.6 |
| 20260501205058 | 63 | 146 | 3.5 | 6.1 | 0.00 | 0.00 | 0.00 | 56 | 1011.6 |
| 20260501204958 | 63 | 166 | 3.5 | 6.1 | 0.00 | 0.00 | 0.00 | 55 | 1011.6 |
| 20260501204856 | 63 | 130 | 2.6 | 6.1 | 0.00 | 0.00 | 0.00 | 55 | 1011.6 |
| 20260501204754 | 63 | 187 | 2.6 | 7.0 | 0.00 | 0.00 | 0.00 | 54 | 1011.6 |
| 20260501204650 | 63 | 178 | 2.6 | 7.0 | 0.00 | 0.00 | 0.00 | 55 | 1011.6 |
| 20260501204549 | 63 | 172 | 2.6 | 7.8 | 0.00 | 0.00 | 0.00 | 55 | 1011.6 |
| 20260501204449 | 63 | 213 | 2.6 | 7.8 | 0.00 | 0.00 | 0.00 | 55 | 1011.6 |
| 20260501204349 | 63 | 156 | 2.6 | 7.8 | 0.00 | 0.00 | 0.00 | 55 | 1011.5 |
| 20260501204249 | 63 | 150 | 3.5 | 9.6 | 0.00 | 0.00 | 0.00 | 56 | 1011.5 |
| 20260501204145 | 63 | 165 | 3.5 | 10.4 | 0.00 | 0.00 | 0.00 | 54 | 1011.5 |
| 20260501204043 | 63 | 190 | 3.5 | 10.4 | 0.00 | 0.00 | 0.00 | 55 | 1011.6 |
| 20260501203943 | 63 | 150 | 4.3 | 10.4 | 0.00 | 0.00 | 0.00 | 55 | 1011.6 |
| 20260501203843 | 63 | 158 | 4.3 | 10.4 | 0.00 | 0.00 | 0.00 | 55 | 1011.6 |
| 20260501203743 | 63 | 145 | 4.3 | 10.4 | 0.00 | 0.00 | 0.00 | 54 | 1011.6 |
| 20260501203635 | 63 | 162 | 4.3 | 10.4 | 0.00 | 0.00 | 0.00 | 54 | 1011.6 |
| 20260501203533 | 63 | 183 | 4.3 | 10.4 | 0.00 | 0.00 | 0.00 | 55 | 1011.6 |
| 20260501203432 | 63 | 334 | 4.3 | 10.4 | 0.00 | 0.00 | 0.00 | 53 | 1011.6 |
| 20260501203332 | 63 | 198 | 4.3 | 10.4 | 0.00 | 0.00 | 0.00 | 53 | 1011.6 |
| 20260501203233 | 64 | 242 | 4.3 | 9.6 | 0.00 | 0.00 | 0.00 | 53 | 1011.6 |
| 20260501203126 | 64 | 126 | 4.3 | 9.6 | 0.00 | 0.00 | 0.00 | 53 | 1011.6 |
| 20260501203026 | 64 | 143 | 3.5 | 9.6 | 0.00 | 0.00 | 0.00 | 53 | 1011.6 |
| 20260501202927 | 64 | 136 | 3.5 | 7.0 | 0.00 | 0.00 | 0.00 | 52 | 1011.6 |
| 20260501202827 | 64 | 152 | 2.6 | 7.0 | 0.00 | 0.00 | 0.00 | 53 | 1011.7 |
| 20260501202726 | 64 | 163 | 2.6 | 7.0 | 0.00 | 0.00 | 0.00 | 53 | 1011.7 |
| 20260501202621 | 64 | 271 | 2.6 | 7.0 | 0.00 | 0.00 | 0.00 | 53 | 1011.7 |
| 20260501202522 | 64 | 194 | 3.5 | 7.0 | 0.00 | 0.00 | 0.00 | 53 | 1011.7 |
| 20260501202422 | 64 | 146 | 3.5 | 7.0 | 0.00 | 0.00 | 0.00 | 54 | 1011.7 |
| 20260501202323 | 64 | 188 | 2.6 | 7.0 | 0.00 | 0.00 | 0.00 | 54 | 1011.8 |
| 20260501202220 | 64 | 196 | 2.6 | 7.0 | 0.00 | 0.00 | 0.00 | 55 | 1011.7 |
| 20260501202113 | 64 | 155 | 2.6 | 7.0 | 0.00 | 0.00 | 0.00 | 53 | 1011.7 |
| 20260501202013 | 64 | 155 | 2.6 | 7.0 | 0.00 | 0.00 | 0.00 | 53 | 1011.7 |
| 20260501201911 | 64 | 259 | 2.6 | 7.0 | 0.00 | 0.00 | 0.00 | 54 | 1011.8 |
| 20260501201812 | 64 | 182 | 3.5 | 7.0 | 0.00 | 0.00 | 0.00 | 52 | 1011.7 |
| 20260501201711 | 64 | 146 | 3.5 | 7.0 | 0.00 | 0.00 | 0.00 | 51 | 1012.0 |
| 20260501201603 | 64 | 169 | 3.5 | 9.6 | 0.00 | 0.00 | 0.00 | 52 | 1012.0 |
| 20260501201504 | 64 | 66 | 3.5 | 9.6 | 0.00 | 0.00 | 0.00 | 53 | 1011.8 |
| 20260501201404 | 64 | 134 | 3.5 | 9.6 | 0.00 | 0.00 | 0.00 | 54 | 1012.0 |
| 20260501201304 | 64 | 154 | 4.3 | 9.6 | 0.00 | 0.00 | 0.00 | 53 | 1012.0 |
| 20260501201204 | 64 | 136 | 4.3 | 9.6 | 0.00 | 0.00 | 0.00 | 55 | 1012.3 |
| 20260501201100 | 64 | 132 | 5.2 | 9.6 | 0.00 | 0.00 | 0.00 | 54 | 1012.1 |
| 20260501200959 | 64 | 134 | 5.2 | 9.6 | 0.00 | 0.00 | 0.00 | 54 | 1012.1 |
| 20260501200900 | 63 | 150 | 5.2 | 9.6 | 0.00 | 0.00 | 0.00 | 55 | 1012.1 |
| 20260501200801 | 63 | 159 | 5.2 | 9.6 | 0.00 | 0.00 | 0.00 | 54 | 1012.2 |
| 20260501200659 | 63 | 186 | 5.2 | 9.6 | 0.00 | 0.00 | 0.00 | 55 | 1012.1 |
| 20260501200549 | 63 | 168 | 5.2 | 9.6 | 0.00 | 0.00 | 0.00 | 55 | 1012.1 |
| 20260501200449 | 63 | 163 | 5.2 | 9.6 | 0.00 | 0.00 | 0.00 | 55 | 1012.1 |
| 20260501200348 | 63 | 123 | 4.3 | 9.6 | 0.00 | 0.00 | 0.00 | 55 | 1012.2 |
| 20260501200248 | 63 | 111 | 3.5 | 9.6 | 0.00 | 0.00 | 0.00 | 54 | 1012.2 |
| 20260501200149 | 63 | 138 | 3.5 | 9.6 | 0.00 | 0.00 | 0.00 | 54 | 1012.3 |
| 20260501200044 | 63 | 135 | 2.6 | 9.6 | 0.00 | 0.00 | 0.00 | 53 | 1012.2 |
| 20260501195943 | 63 | 134 | 2.6 | 8.7 | 0.00 | 0.00 | 0.00 | 55 | 1012.3 |
| 20260501195843 | 63 | 205 | 2.6 | 7.8 | 0.00 | 0.00 | 0.00 | 56 | 1012.3 |
| 20260501195741 | 63 | 155 | 2.6 | 7.8 | 0.00 | 0.00 | 0.00 | 54 | 1012.2 |
| 20260501195642 | 63 | 92 | 2.6 | 7.0 | 0.00 | 0.00 | 0.00 | 54 | 1012.3 |
| 20260501195540 | 63 | 153 | 2.6 | 7.0 | 0.00 | 0.00 | 0.00 | 55 | 1012.2 |
| 20260501195437 | 63 | 76 | 2.6 | 8.7 | 0.00 | 0.00 | 0.00 | 55 | 1012.3 |
| 20260501195337 | 63 | 327 | 3.5 | 9.6 | 0.00 | 0.00 | 0.00 | 54 | 1012.2 |
| 20260501195236 | 63 | 327 | 3.5 | 9.6 | 0.00 | 0.00 | 0.00 | 53 | 1012.3 |
| 20260501195136 | 63 | 327 | 4.3 | 11.3 | 0.00 | 0.00 | 0.00 | 53 | 1012.3 |
| 20260501195026 | 63 | 327 | 4.3 | 11.3 | 0.00 | 0.00 | 0.00 | 52 | 1012.3 |
| 20260501194927 | 63 | 326 | 4.3 | 11.3 | 0.00 | 0.00 | 0.00 | 53 | 1012.3 |
| 20260501194826 | 63 | 127 | 4.3 | 11.3 | 0.00 | 0.00 | 0.00 | 51 | 1012.3 |
| 20260501194725 | 63 | 130 | 4.3 | 11.3 | 0.00 | 0.00 | 0.00 | 51 | 1012.3 |
| 20260501194627 | 63 | 143 | 4.3 | 11.3 | 0.00 | 0.00 | 0.00 | 51 | 1012.4 |
| 20260501194521 | 64 | 212 | 4.3 | 11.3 | 0.00 | 0.00 | 0.00 | 51 | 1012.3 |
| 20260501194421 | 64 | 167 | 3.5 | 11.3 | 0.00 | 0.00 | 0.00 | 52 | 1012.4 |
| 20260501194321 | 64 | 125 | 3.5 | 11.3 | 0.00 | 0.00 | 0.00 | 51 | 1012.4 |
| 20260501194220 | 64 | 187 | 3.5 | 11.3 | 0.00 | 0.00 | 0.00 | 52 | 1012.4 |
| 20260501194121 | 64 | 155 | 3.5 | 7.8 | 0.00 | 0.00 | 0.00 | 52 | 1012.4 |
| 20260501194014 | 64 | 165 | 3.5 | 8.7 | 0.00 | 0.00 | 0.00 | 53 | 1012.4 |
| 20260501193914 | 64 | 169 | 3.5 | 8.7 | 0.00 | 0.00 | 0.00 | 52 | 1012.4 |
| 20260501193814 | 64 | 167 | 3.5 | 8.7 | 0.00 | 0.00 | 0.00 | 52 | 1012.4 |
| 20260501193714 | 64 | 312 | 3.5 | 8.7 | 0.00 | 0.00 | 0.00 | 54 | 1012.4 |
| 20260501193614 | 64 | 166 | 4.3 | 8.7 | 0.00 | 0.00 | 0.00 | 53 | 1012.5 |
| 20260501193504 | 64 | 196 | 4.3 | 8.7 | 0.00 | 0.00 | 0.00 | 52 | 1012.5 |
| 20260501193405 | 64 | 186 | 4.3 | 8.7 | 0.00 | 0.00 | 0.00 | 53 | 1012.5 |
| 20260501193305 | 64 | 147 | 4.3 | 8.7 | 0.00 | 0.00 | 0.00 | 52 | 1012.5 |